Observation Tools

Willow oak Photo courtesy of Steve Baskauf, Vanderbilt University, bioimages.vanderbilt.edu.

Willow oak (Quercus phellos)


Plant Family: Beech (Fagaceae)
Project BudBurst Plant Group: Deciduous Trees and Shrubs

Identification Hints: Willow oaks are found in much ofthe eastern United States and as far west as Texas and Oklahoma.They prefer stream sides and wet areas, but can also be found in upland areas. The shape of the leaves,which are long and skinny like willow-leaves, are what give this oak species its name. Willow oaksproduce acorns in abundance and are an important food source for wildlife.

Did you Know? Willow oaks have separate male and female catkins that consist of small, inconspicuous, yellowish-green flowers. The male and female flowers can often be found on the same tree. This tree is commonly planted for shade and is often found along the edges of ponds and reservoirs.


Live Map for Willow oak

Other years available for viewing:

Below you can view all observations that have been reported in for Willow oak (If the map below is empty then there have not been any observations reported.)

Use the navigation buttons on the left to zoom in/out and pan around. Click on each place marker to get detail information about that observation.

Leaf/Needles/Stalk = Leaf/Needles/Stalk Flower = Flower Pollen = Pollen Fruiting = Fruiting Color = Color

--Back to Top--

close help window button

The table below displays all the data that has been submitted to Project BudBurst. By default, the data is sorted by the date on which the phenophase occurred. Clicking the up and down arrows next to each column name allows you to sort on any value. If there have been more than 10 observations submitted, you can choose how many to display at a time using the "Show __ entries" control. You can also page through the data using the previous and next buttons at the bottom right of the table.

The Search box allows you to search all of the data. Searching by date, species, phenophase, etc. is easy—just start typing and the table will immediately change to contain only observations that contain your search phrase. Do you want to see only 2012 observations? Just type "2012" in the search box. Only want to see maples? Enter "Acer." You can combine searches, too! Searching for "acer 2012" will narrow your results to only the maples that were observed in 2012 (assuming that any observations exist, of course).

Once you have your results in the order desired, you can use any of the buttons above the search box to copy the results to the clipboard; save them as a text, or spreadsheet; or even print them from your browser!

Observational data for Willow oak:

help button
Date Contributor Common Name Species Phenophase Latitude Longitude Obs#
Tue Sep 04 00:00:00 GMT 2012 evieroen Willow oak Quercus phellos Leaves Dropping (Early) 42.360000000000000 -83.050000000000000 16501
Tue Sep 04 00:00:00 GMT 2012 evieroen Willow oak Quercus phellos Leaves Dropping (Early) 42.360000000000000 -83.050000000000000 16502
Tue Sep 04 00:00:00 GMT 2012 evieroen Willow oak Quercus phellos Leaves Dropping (Early) 42.360000000000000 -83.050000000000000 16503
Tue Sep 04 00:00:00 GMT 2012 evieroen Willow oak Quercus phellos Leaves Dropping (Early) 42.360000000000000 -83.050000000000000 16499
Tue Oct 16 00:00:00 GMT 2012 waryan Willow oak Quercus phellos Leaves Changing Color (Middle) 40.008100000000000 -105.280000000000000 17478
Fri Apr 05 00:00:00 GMT 2013 lsjones1_CCHS_reporter1 Willow oak Quercus phellos Leaves Unfolding (Early) 35.613300000000000 -79.390100000000000 18696
Wed Apr 03 00:00:00 GMT 2013 josefina2024 Willow oak Quercus phellos Bud Burst 33.845900000000000 -84.340100000000000 18709
Tue Apr 09 00:00:00 GMT 2013 Taproot123 Willow oak Quercus phellos Leaves Unfolding (Early) 33.997500000000000 -84.069700000000000 18713
Sat Jul 20 00:00:00 GMT 2013 jeanmp Willow oak Quercus phellos All Leaves Unfolded 35.010700000000000 -79.039300000000000 21721
Sun Oct 20 00:00:00 GMT 2013 katherine_kovach Willow oak Quercus phellos Leaves Dropping (Middle) 36.012700000000000 -78.904500000000000 22673
Sun Nov 03 00:00:00 GMT 2013 Courtney Willow oak Quercus phellos Leaves Dropping (Early) 37.097200000000000 -88.875500000000000 22946
Fri Nov 01 00:00:00 GMT 2013 Tjharnish91 Willow oak Quercus phellos 50% Color 39.173800000000000 -86.532500000000000 23293
Wed Nov 06 00:00:00 GMT 2013 Tjharnish91 Willow oak Quercus phellos 50% Leaf Fall 39.173800000000000 -86.532500000000000 23294
Wed Oct 30 00:00:00 GMT 2013 robinv1_Washington_College_reporter11 Willow oak Quercus phellos 50% Color 39.219200000000000 -76.069600000000000 24149
Tue Oct 29 00:00:00 GMT 2013 robinv1_Washington_College_reporter11 Willow oak Quercus phellos 50% Leaf Fall 39.219200000000000 -76.069600000000000 24150
Mon Oct 07 00:00:00 GMT 2013 robinv1_Washington_College_reporter21 Willow oak Quercus phellos 50% Color 39.219200000000000 -76.069600000000000 24181
Mon Oct 14 00:00:00 GMT 2013 robinv1_Washington_College_reporter21 Willow oak Quercus phellos 50% Leaf Fall 39.219200000000000 -76.069600000000000 24182
Mon Oct 14 00:00:00 GMT 2013 robinv1_Washington_College_reporter22 Willow oak Quercus phellos 50% Color 39.219200000000000 -76.069600000000000 24166
Sun Oct 20 00:00:00 GMT 2013 robinv1_Washington_College_reporter22 Willow oak Quercus phellos 50% Leaf Fall 39.219200000000000 -76.069600000000000 24167
Sun Oct 06 00:00:00 GMT 2013 robinv1_Washington_College_reporter9 Willow oak Quercus phellos 50% Color 39.219200000000000 -76.069600000000000 24227
Sun Oct 20 00:00:00 GMT 2013 robinv1_Washington_College_reporter9 Willow oak Quercus phellos 50% Leaf Fall 39.219200000000000 -76.069600000000000 24228
Mon Oct 28 00:00:00 GMT 2013 robinv1_Washington_College_reporter3 Willow oak Quercus phellos 50% Color 39.219200000000000 -76.069600000000000 24245
Mon Nov 11 00:00:00 GMT 2013 robinv1_Washington_College_reporter3 Willow oak Quercus phellos 50% Leaf Fall 39.219200000000000 -76.069600000000000 24246
Sat Oct 19 00:00:00 GMT 2013 robinv1_Washington_College_reporter23 Willow oak Quercus phellos 50% Color 39.219200000000000 -76.069600000000000 24255
Thu Oct 17 00:00:00 GMT 2013 robinv1_Washington_College_reporter23 Willow oak Quercus phellos 50% Leaf Fall 39.219200000000000 -76.069600000000000 24256
Sat Mar 29 00:00:00 GMT 2014 timmymckinnon Willow oak Quercus phellos Leaves Unfolding (Early) 39.607900000000000 -77.073900000000000 27796
Sat Mar 29 00:00:00 GMT 2014 timmymckinnon Willow oak Quercus phellos Leaves Changing Color (None) 39.607900000000000 -77.073900000000000 27797
Sat Mar 29 00:00:00 GMT 2014 timmymckinnon Willow oak Quercus phellos Leaves Dropping (None) 39.607900000000000 -77.073900000000000 27798
Sat Mar 29 00:00:00 GMT 2014 timmymckinnon Willow oak Quercus phellos Flowers (None) 39.607900000000000 -77.073900000000000 27799
Sat Mar 29 00:00:00 GMT 2014 timmymckinnon Willow oak Quercus phellos Fruit (None) 39.607900000000000 -77.073900000000000 27800
Mon Apr 14 00:00:00 GMT 2014 kapittman Willow oak Quercus phellos Leaves Unfolding (Early) 39.166300000000000 -86.511710000000000 29054
Mon Apr 14 00:00:00 GMT 2014 kapittman Willow oak Quercus phellos Leaves Changing Color (Early) 39.166300000000000 -86.511710000000000 29055
Mon Apr 14 00:00:00 GMT 2014 kapittman Willow oak Quercus phellos Leaves Dropping (None) 39.166300000000000 -86.511710000000000 29056
Mon Apr 14 00:00:00 GMT 2014 kapittman Willow oak Quercus phellos Flowers (None) 39.166300000000000 -86.511710000000000 29057
Mon Apr 14 00:00:00 GMT 2014 kapittman Willow oak Quercus phellos Fruit (None) 39.166300000000000 -86.511710000000000 29058
Mon Apr 14 00:00:00 GMT 2014 kapittman Willow oak Quercus phellos Leaves Unfolding (Early) 39.166300000000000 -86.511710000000000 29059
Mon Apr 14 00:00:00 GMT 2014 kapittman Willow oak Quercus phellos Leaves Changing Color (Early) 39.166300000000000 -86.511710000000000 29060
Mon Apr 14 00:00:00 GMT 2014 kapittman Willow oak Quercus phellos Leaves Dropping (None) 39.166300000000000 -86.511710000000000 29061
Mon Apr 14 00:00:00 GMT 2014 kapittman Willow oak Quercus phellos Flowers (None) 39.166300000000000 -86.511710000000000 29062
Mon Apr 14 00:00:00 GMT 2014 kapittman Willow oak Quercus phellos Fruit (None) 39.166300000000000 -86.511710000000000 29063
Wed Mar 12 00:00:00 GMT 2014 BBRAKER@OXY.EDU_Audubon_Center_at_Debs_Park_reporter2 Willow oak Quercus phellos Leaves Unfolding (Early) 38.655340000000000 -121.241020000000000 29828
Wed Mar 12 00:00:00 GMT 2014 BBRAKER@OXY.EDU_Audubon_Center_at_Debs_Park_reporter2 Willow oak Quercus phellos Leaves Changing Color (None) 38.655340000000000 -121.241020000000000 29829
Wed Mar 12 00:00:00 GMT 2014 BBRAKER@OXY.EDU_Audubon_Center_at_Debs_Park_reporter2 Willow oak Quercus phellos Leaves Dropping (Early) 38.655340000000000 -121.241020000000000 29830
Wed Mar 12 00:00:00 GMT 2014 BBRAKER@OXY.EDU_Audubon_Center_at_Debs_Park_reporter2 Willow oak Quercus phellos Flowers (None) 38.655340000000000 -121.241020000000000 29831
Wed Mar 12 00:00:00 GMT 2014 BBRAKER@OXY.EDU_Audubon_Center_at_Debs_Park_reporter2 Willow oak Quercus phellos Fruit (None) 38.655340000000000 -121.241020000000000 29832
Fri Apr 25 00:00:00 GMT 2014 lafave Willow oak Quercus phellos Leaves Unfolding (Middle) 35.093185000000000 -81.186261000000000 30564
Fri Apr 25 00:00:00 GMT 2014 lafave Willow oak Quercus phellos Leaves Changing Color (None) 35.093185000000000 -81.186261000000000 30565
Fri Apr 25 00:00:00 GMT 2014 lafave Willow oak Quercus phellos Leaves Dropping (None) 35.093185000000000 -81.186261000000000 30566
Fri Apr 25 00:00:00 GMT 2014 lafave Willow oak Quercus phellos Flowers (None) 35.093185000000000 -81.186261000000000 30567
Fri Apr 25 00:00:00 GMT 2014 lafave Willow oak Quercus phellos Fruit (None) 35.093185000000000 -81.186261000000000 30568
Sun Jun 08 00:00:00 GMT 2014 matthewlewy Willow oak Quercus phellos Leaves Unfolding (None) 37.474858000000000 -77.431641000000000 33746
Sun Jun 08 00:00:00 GMT 2014 matthewlewy Willow oak Quercus phellos Leaves Changing Color (None) 37.474858000000000 -77.431641000000000 33747
Sun Jun 08 00:00:00 GMT 2014 matthewlewy Willow oak Quercus phellos Leaves Dropping (None) 37.474858000000000 -77.431641000000000 33748
Sun Jun 08 00:00:00 GMT 2014 matthewlewy Willow oak Quercus phellos Flowers (None) 37.474858000000000 -77.431641000000000 33749
Sun Jun 08 00:00:00 GMT 2014 matthewlewy Willow oak Quercus phellos Fruit (None) 37.474858000000000 -77.431641000000000 33750
Sun Oct 20 00:00:00 GMT 2013 hcps-simmonszt Willow oak Quercus phellos Leaves Unfolding (None) 37.667470000000000 -77.527650000000000 33763
Sun Oct 20 00:00:00 GMT 2013 hcps-simmonszt Willow oak Quercus phellos Leaves Changing Color (None) 37.667470000000000 -77.527650000000000 33764
Sun Oct 20 00:00:00 GMT 2013 hcps-simmonszt Willow oak Quercus phellos Leaves Dropping (Late) 37.667470000000000 -77.527650000000000 33765
Sun Oct 20 00:00:00 GMT 2013 hcps-simmonszt Willow oak Quercus phellos Flowers (None) 37.667470000000000 -77.527650000000000 33766
Sun Oct 20 00:00:00 GMT 2013 hcps-simmonszt Willow oak Quercus phellos Fruit (None) 37.667470000000000 -77.527650000000000 33767
Sat Oct 11 00:00:00 GMT 2014 itachi77 Willow oak Quercus phellos Leaves Unfolding (None) 36.623100000000000 -88.310570000000000 36754
Sat Oct 11 00:00:00 GMT 2014 itachi77 Willow oak Quercus phellos Leaves Changing Color (Early) 36.623100000000000 -88.310570000000000 36755
Sat Oct 11 00:00:00 GMT 2014 itachi77 Willow oak Quercus phellos Leaves Dropping (Middle) 36.623100000000000 -88.310570000000000 36756
Sat Oct 11 00:00:00 GMT 2014 itachi77 Willow oak Quercus phellos Flowers (None) 36.623100000000000 -88.310570000000000 36757
Sat Oct 11 00:00:00 GMT 2014 itachi77 Willow oak Quercus phellos Fruit (None) 36.623100000000000 -88.310570000000000 36758
Sat Oct 11 00:00:00 GMT 2014 itachi77 Willow oak Quercus phellos Leaves Unfolding (None) 36.623100000000000 -88.310570000000000 36764
Sat Oct 11 00:00:00 GMT 2014 itachi77 Willow oak Quercus phellos Leaves Changing Color (Early) 36.623100000000000 -88.310570000000000 36765
Sat Oct 11 00:00:00 GMT 2014 itachi77 Willow oak Quercus phellos Leaves Dropping (None) 36.623100000000000 -88.310570000000000 36766
Sat Oct 11 00:00:00 GMT 2014 itachi77 Willow oak Quercus phellos Flowers (None) 36.623100000000000 -88.310570000000000 36767
Sat Oct 11 00:00:00 GMT 2014 itachi77 Willow oak Quercus phellos Fruit (None) 36.623100000000000 -88.310570000000000 36768
Sat Oct 11 00:00:00 GMT 2014 itachi77 Willow oak Quercus phellos Leaves Unfolding (None) 36.623100000000000 -88.310570000000000 36769
Sat Oct 11 00:00:00 GMT 2014 itachi77 Willow oak Quercus phellos Leaves Changing Color (Middle) 36.623100000000000 -88.310570000000000 36770
Sat Oct 11 00:00:00 GMT 2014 itachi77 Willow oak Quercus phellos Leaves Unfolding (None) 36.623100000000000 -88.310570000000000 36759
Sat Oct 11 00:00:00 GMT 2014 itachi77 Willow oak Quercus phellos Leaves Changing Color (Early) 36.623100000000000 -88.310570000000000 36760
Sat Oct 11 00:00:00 GMT 2014 itachi77 Willow oak Quercus phellos Leaves Dropping (Early) 36.623100000000000 -88.310570000000000 36761
Sat Oct 11 00:00:00 GMT 2014 itachi77 Willow oak Quercus phellos Flowers (None) 36.623100000000000 -88.310570000000000 36762
Sat Oct 11 00:00:00 GMT 2014 itachi77 Willow oak Quercus phellos Fruit (None) 36.623100000000000 -88.310570000000000 36763
Sat Oct 11 00:00:00 GMT 2014 itachi77 Willow oak Quercus phellos Leaves Dropping (Middle) 36.623100000000000 -88.310570000000000 36771
Sat Oct 11 00:00:00 GMT 2014 itachi77 Willow oak Quercus phellos Flowers (None) 36.623100000000000 -88.310570000000000 36772
Sat Oct 11 00:00:00 GMT 2014 itachi77 Willow oak Quercus phellos Fruit (None) 36.623100000000000 -88.310570000000000 36773
Wed Nov 05 00:00:00 GMT 2014 Byelhas93 Willow oak Quercus phellos Leaves Unfolding (Late) 36.927550000000000 -80.021046000000000 39893
Wed Nov 05 00:00:00 GMT 2014 Byelhas93 Willow oak Quercus phellos Leaves Changing Color (Middle) 36.927550000000000 -80.021046000000000 39894
Wed Nov 05 00:00:00 GMT 2014 Byelhas93 Willow oak Quercus phellos Leaves Dropping (Middle) 36.927550000000000 -80.021046000000000 39895
Wed Nov 05 00:00:00 GMT 2014 Byelhas93 Willow oak Quercus phellos Flowers (None) 36.927550000000000 -80.021046000000000 39896
Wed Nov 05 00:00:00 GMT 2014 Byelhas93 Willow oak Quercus phellos Fruit (Late) 36.927550000000000 -80.021046000000000 39897
Mon Feb 23 00:00:00 GMT 2015 carlisa15 Willow oak Quercus phellos 50% Color 40.000000000000000 -100.000000000000000 44170
Mon Feb 23 00:00:00 GMT 2015 carlisa15 Willow oak Quercus phellos 50% Leaf Fall 40.000000000000000 -100.000000000000000 44171
Thu Mar 12 00:00:00 GMT 2015 ashleyshin Willow oak Quercus phellos Bud Burst 39.165330000000000 -86.526390000000000 46583
Sun Apr 12 00:00:00 GMT 2015 ashleyshin Willow oak Quercus phellos First Leaf 39.165330000000000 -86.526390000000000 46584
Fri Mar 13 00:00:00 GMT 2015 ashleyshin Willow oak Quercus phellos Bud Burst 39.165330000000000 -86.526390000000000 46585
Sun Apr 12 00:00:00 GMT 2015 ashleyshin Willow oak Quercus phellos First Leaf 39.165330000000000 -86.526390000000000 46586
Tue Apr 07 00:00:00 GMT 2015 shyaml Willow oak Quercus phellos First Leaf 38.986920000000000 -76.942550000000000 46832
Tue Apr 14 00:00:00 GMT 2015 shyaml Willow oak Quercus phellos All Leaves Unfolded 38.986920000000000 -76.942550000000000 46833
Thu Feb 26 00:00:00 GMT 2015 lesliejohnson1 Willow oak Quercus phellos Bud Burst 32.781600000000000 -96.745080000000000 47620
Tue Mar 03 00:00:00 GMT 2015 lesliejohnson1 Willow oak Quercus phellos First Leaf 32.781600000000000 -96.745080000000000 47621
Mon Mar 09 00:00:00 GMT 2015 lesliejohnson1 Willow oak Quercus phellos All Leaves Unfolded 32.781600000000000 -96.745080000000000 47622
Tue Mar 31 00:00:00 GMT 2015 lesliejohnson1 Willow oak Quercus phellos 50% Color 32.781600000000000 -96.745080000000000 47623
Thu Sep 03 00:00:00 GMT 2015 beenature Willow oak Quercus phellos Leaves Unfolding (None) 34.088290000000000 -84.641820000000000 52758
Thu Sep 03 00:00:00 GMT 2015 beenature Willow oak Quercus phellos Leaves Changing Color (Early) 34.088290000000000 -84.641820000000000 52759
Thu Sep 03 00:00:00 GMT 2015 beenature Willow oak Quercus phellos Leaves Dropping (None) 34.088290000000000 -84.641820000000000 52760
Thu Sep 03 00:00:00 GMT 2015 beenature Willow oak Quercus phellos Flowers (None) 34.088290000000000 -84.641820000000000 52761
Thu Sep 03 00:00:00 GMT 2015 beenature Willow oak Quercus phellos Fruit (None) 34.088290000000000 -84.641820000000000 52762
Tue Sep 08 00:00:00 GMT 2015 ravens Willow oak Quercus phellos Leaves Unfolding (Early) 35.222493000000000 -111.612634000000000 53015
Tue Sep 08 00:00:00 GMT 2015 ravens Willow oak Quercus phellos Leaves Changing Color (None) 35.222493000000000 -111.612634000000000 53016
Tue Sep 08 00:00:00 GMT 2015 ravens Willow oak Quercus phellos Leaves Dropping (Early) 35.222493000000000 -111.612634000000000 53017
Tue Sep 08 00:00:00 GMT 2015 ravens Willow oak Quercus phellos Flowers (None) 35.222493000000000 -111.612634000000000 53018
Tue Sep 08 00:00:00 GMT 2015 ravens Willow oak Quercus phellos Fruit (None) 35.222493000000000 -111.612634000000000 53019
Thu Oct 01 00:00:00 GMT 2015 robinv1_Washington_College_reporter46 Willow oak Quercus phellos Leaves Unfolding (Late) 39.217300000000000 -76.068650000000000 53577
Thu Oct 01 00:00:00 GMT 2015 robinv1_Washington_College_reporter46 Willow oak Quercus phellos Leaves Changing Color (Early) 39.217300000000000 -76.068650000000000 53578
Thu Oct 01 00:00:00 GMT 2015 robinv1_Washington_College_reporter46 Willow oak Quercus phellos Leaves Dropping (Early) 39.217300000000000 -76.068650000000000 53579
Thu Oct 01 00:00:00 GMT 2015 robinv1_Washington_College_reporter46 Willow oak Quercus phellos Flowers (None) 39.217300000000000 -76.068650000000000 53580
Thu Oct 01 00:00:00 GMT 2015 robinv1_Washington_College_reporter46 Willow oak Quercus phellos Fruit (None) 39.217300000000000 -76.068650000000000 53581
Sun Oct 04 00:00:00 GMT 2015 robinv1_Washington_College_reporter60 Willow oak Quercus phellos Leaves Unfolding (Late) 39.219230000000000 -76.069650000000000 53626
Sun Oct 04 00:00:00 GMT 2015 robinv1_Washington_College_reporter60 Willow oak Quercus phellos Leaves Changing Color (Early) 39.219230000000000 -76.069650000000000 53627
Sun Oct 04 00:00:00 GMT 2015 robinv1_Washington_College_reporter60 Willow oak Quercus phellos Leaves Dropping (Early) 39.219230000000000 -76.069650000000000 53628
Sun Oct 04 00:00:00 GMT 2015 robinv1_Washington_College_reporter60 Willow oak Quercus phellos Flowers (None) 39.219230000000000 -76.069650000000000 53629
Sun Oct 04 00:00:00 GMT 2015 robinv1_Washington_College_reporter60 Willow oak Quercus phellos Fruit (None) 39.219230000000000 -76.069650000000000 53630
Tue Oct 06 00:00:00 GMT 2015 robinv1_Washington_College_reporter50 Willow oak Quercus phellos Leaves Unfolding (Early) 39.218870000000000 -76.069000000000000 53752
Tue Oct 06 00:00:00 GMT 2015 robinv1_Washington_College_reporter50 Willow oak Quercus phellos Leaves Changing Color (Early) 39.218870000000000 -76.069000000000000 53753
Tue Oct 06 00:00:00 GMT 2015 robinv1_Washington_College_reporter50 Willow oak Quercus phellos Leaves Dropping (Early) 39.218870000000000 -76.069000000000000 53754
Tue Oct 06 00:00:00 GMT 2015 robinv1_Washington_College_reporter50 Willow oak Quercus phellos Flowers (None) 39.218870000000000 -76.069000000000000 53755
Tue Oct 06 00:00:00 GMT 2015 robinv1_Washington_College_reporter50 Willow oak Quercus phellos Fruit (None) 39.218870000000000 -76.069000000000000 53756
Tue Oct 06 00:00:00 GMT 2015 robinv1_Washington_College_reporter50 Willow oak Quercus phellos Leaves Unfolding (Early) 39.218870000000000 -76.069000000000000 53757
Tue Oct 06 00:00:00 GMT 2015 robinv1_Washington_College_reporter50 Willow oak Quercus phellos Leaves Changing Color (Early) 39.218870000000000 -76.069000000000000 53758
Tue Oct 06 00:00:00 GMT 2015 robinv1_Washington_College_reporter50 Willow oak Quercus phellos Leaves Dropping (Early) 39.218870000000000 -76.069000000000000 53759
Tue Oct 06 00:00:00 GMT 2015 robinv1_Washington_College_reporter50 Willow oak Quercus phellos Flowers (None) 39.218870000000000 -76.069000000000000 53760
Tue Oct 06 00:00:00 GMT 2015 robinv1_Washington_College_reporter50 Willow oak Quercus phellos Fruit (None) 39.218870000000000 -76.069000000000000 53761
Sun Oct 04 00:00:00 GMT 2015 robinv1_Washington_College_reporter37 Willow oak Quercus phellos 50% Color 39.219200000000000 -76.069600000000000 53749
Sun Oct 04 00:00:00 GMT 2015 robinv1_Washington_College_reporter37 Willow oak Quercus phellos 50% Leaf Fall 39.219200000000000 -76.069600000000000 53750
Sun Oct 11 00:00:00 GMT 2015 robinv1_Washington_College_reporter46 Willow oak Quercus phellos Leaves Unfolding (None) 39.217300000000000 -76.068650000000000 54211
Sun Oct 11 00:00:00 GMT 2015 robinv1_Washington_College_reporter46 Willow oak Quercus phellos Leaves Changing Color (Early) 39.217300000000000 -76.068650000000000 54212
Sun Oct 11 00:00:00 GMT 2015 robinv1_Washington_College_reporter46 Willow oak Quercus phellos Leaves Dropping (Early) 39.217300000000000 -76.068650000000000 54213
Sun Oct 11 00:00:00 GMT 2015 robinv1_Washington_College_reporter46 Willow oak Quercus phellos Flowers (None) 39.217300000000000 -76.068650000000000 54214
Sun Oct 11 00:00:00 GMT 2015 robinv1_Washington_College_reporter46 Willow oak Quercus phellos Fruit (None) 39.217300000000000 -76.068650000000000 54215
Tue Oct 27 00:00:00 GMT 2015 robinv1_Washington_College_reporter46 Willow oak Quercus phellos Leaves Unfolding (None) 39.217300000000000 -76.068650000000000 55006
Tue Oct 27 00:00:00 GMT 2015 robinv1_Washington_College_reporter46 Willow oak Quercus phellos Leaves Changing Color (Middle) 39.217300000000000 -76.068650000000000 55007
Tue Oct 27 00:00:00 GMT 2015 robinv1_Washington_College_reporter46 Willow oak Quercus phellos Leaves Dropping (Early) 39.217300000000000 -76.068650000000000 55008
Tue Oct 27 00:00:00 GMT 2015 robinv1_Washington_College_reporter46 Willow oak Quercus phellos Flowers (None) 39.217300000000000 -76.068650000000000 55009
Tue Oct 27 00:00:00 GMT 2015 robinv1_Washington_College_reporter46 Willow oak Quercus phellos Fruit (None) 39.217300000000000 -76.068650000000000 55010
Thu Oct 22 00:00:00 GMT 2015 robinv1_Washington_College_reporter46 Willow oak Quercus phellos Leaves Unfolding (None) 39.217300000000000 -76.068650000000000 55001
Thu Oct 22 00:00:00 GMT 2015 robinv1_Washington_College_reporter46 Willow oak Quercus phellos Leaves Changing Color (Middle) 39.217300000000000 -76.068650000000000 55002
Thu Oct 22 00:00:00 GMT 2015 robinv1_Washington_College_reporter46 Willow oak Quercus phellos Leaves Dropping (Early) 39.217300000000000 -76.068650000000000 55003
Thu Oct 22 00:00:00 GMT 2015 robinv1_Washington_College_reporter46 Willow oak Quercus phellos Flowers (None) 39.217300000000000 -76.068650000000000 55004
Thu Oct 22 00:00:00 GMT 2015 robinv1_Washington_College_reporter46 Willow oak Quercus phellos Fruit (None) 39.217300000000000 -76.068650000000000 55005
Wed Nov 04 00:00:00 GMT 2015 rshuman Willow oak Quercus phellos Leaves Unfolding (Late) 44.666775000000000 -73.728603000000000 55424
Wed Nov 04 00:00:00 GMT 2015 rshuman Willow oak Quercus phellos Leaves Unfolding (None) 44.653360000000000 -73.775082000000000 55472
Wed Nov 04 00:00:00 GMT 2015 rshuman Willow oak Quercus phellos Leaves Changing Color (Late) 44.653360000000000 -73.775082000000000 55473
Wed Nov 04 00:00:00 GMT 2015 rshuman Willow oak Quercus phellos Leaves Changing Color (None) 44.666775000000000 -73.728603000000000 55425
Wed Nov 04 00:00:00 GMT 2015 rshuman Willow oak Quercus phellos Leaves Dropping (None) 44.666775000000000 -73.728603000000000 55426
Wed Nov 04 00:00:00 GMT 2015 rshuman Willow oak Quercus phellos Flowers (None) 44.666775000000000 -73.728603000000000 55427
Wed Nov 04 00:00:00 GMT 2015 rshuman Willow oak Quercus phellos Fruit (None) 44.666775000000000 -73.728603000000000 55428
Wed Nov 04 00:00:00 GMT 2015 rshuman Willow oak Quercus phellos Leaves Dropping (Middle) 44.653360000000000 -73.775082000000000 55474
Wed Nov 04 00:00:00 GMT 2015 rshuman Willow oak Quercus phellos Flowers (None) 44.653360000000000 -73.775082000000000 55475
Wed Nov 04 00:00:00 GMT 2015 rshuman Willow oak Quercus phellos Fruit (None) 44.653360000000000 -73.775082000000000 55476
Wed Nov 04 00:00:00 GMT 2015 rshuman Willow oak Quercus phellos Leaves Unfolding (Middle) 44.665430000000000 -73.729870000000000 55880
Wed Nov 04 00:00:00 GMT 2015 rshuman Willow oak Quercus phellos Leaves Changing Color (None) 44.665430000000000 -73.729870000000000 55881
Wed Nov 04 00:00:00 GMT 2015 rshuman Willow oak Quercus phellos Leaves Dropping (Early) 44.665430000000000 -73.729870000000000 55882
Wed Nov 04 00:00:00 GMT 2015 rshuman Willow oak Quercus phellos Flowers (None) 44.665430000000000 -73.729870000000000 55883
Wed Nov 04 00:00:00 GMT 2015 rshuman Willow oak Quercus phellos Fruit (None) 44.665430000000000 -73.729870000000000 55884
Wed Nov 04 00:00:00 GMT 2015 rshuman Willow oak Quercus phellos Leaves Unfolding (Late) 44.720000000000000 -73.557000000000000 55895
Wed Nov 04 00:00:00 GMT 2015 rshuman Willow oak Quercus phellos Leaves Changing Color (Late) 44.720000000000000 -73.557000000000000 55896
Wed Nov 04 00:00:00 GMT 2015 rshuman Willow oak Quercus phellos Leaves Dropping (Late) 44.720000000000000 -73.557000000000000 55897
Wed Nov 04 00:00:00 GMT 2015 rshuman Willow oak Quercus phellos Flowers (None) 44.720000000000000 -73.557000000000000 55898
Wed Nov 04 00:00:00 GMT 2015 rshuman Willow oak Quercus phellos Fruit (None) 44.720000000000000 -73.557000000000000 55899
Thu Nov 05 00:00:00 GMT 2015 robinv1_Washington_College_reporter46 Willow oak Quercus phellos Leaves Unfolding (None) 39.217300000000000 -76.068650000000000 56472
Thu Nov 05 00:00:00 GMT 2015 robinv1_Washington_College_reporter46 Willow oak Quercus phellos Leaves Changing Color (Middle) 39.217300000000000 -76.068650000000000 56473
Thu Nov 05 00:00:00 GMT 2015 robinv1_Washington_College_reporter46 Willow oak Quercus phellos Leaves Dropping (Middle) 39.217300000000000 -76.068650000000000 56474
Thu Nov 05 00:00:00 GMT 2015 robinv1_Washington_College_reporter46 Willow oak Quercus phellos Flowers (None) 39.217300000000000 -76.068650000000000 56475
Thu Nov 05 00:00:00 GMT 2015 robinv1_Washington_College_reporter46 Willow oak Quercus phellos Fruit (None) 39.217300000000000 -76.068650000000000 56476
Thu Nov 12 00:00:00 GMT 2015 robinv1_Washington_College_reporter46 Willow oak Quercus phellos Leaves Unfolding (None) 39.217300000000000 -76.068650000000000 57060
Thu Nov 12 00:00:00 GMT 2015 robinv1_Washington_College_reporter46 Willow oak Quercus phellos Leaves Changing Color (Middle) 39.217300000000000 -76.068650000000000 57061
Thu Nov 12 00:00:00 GMT 2015 robinv1_Washington_College_reporter46 Willow oak Quercus phellos Leaves Dropping (Middle) 39.217300000000000 -76.068650000000000 57062
Thu Nov 12 00:00:00 GMT 2015 robinv1_Washington_College_reporter46 Willow oak Quercus phellos Flowers (None) 39.217300000000000 -76.068650000000000 57063
Thu Nov 12 00:00:00 GMT 2015 robinv1_Washington_College_reporter46 Willow oak Quercus phellos Fruit (None) 39.217300000000000 -76.068650000000000 57064
Tue Nov 17 00:00:00 GMT 2015 Parsley Willow oak Quercus phellos Leaves Unfolding (None) 39.244153000000000 -76.595796000000000 57259
Tue Nov 17 00:00:00 GMT 2015 Parsley Willow oak Quercus phellos Leaves Changing Color (Late) 39.244153000000000 -76.595796000000000 57260
Tue Nov 17 00:00:00 GMT 2015 Parsley Willow oak Quercus phellos Leaves Dropping (Middle) 39.244153000000000 -76.595796000000000 57261
Tue Nov 17 00:00:00 GMT 2015 Parsley Willow oak Quercus phellos Flowers (None) 39.244153000000000 -76.595796000000000 57262
Tue Nov 17 00:00:00 GMT 2015 Parsley Willow oak Quercus phellos Fruit (None) 39.244153000000000 -76.595796000000000 57263
Tue Oct 20 00:00:00 GMT 2015 sonji13 Willow oak Quercus phellos 50% Color 40.000000000000000 -100.000000000000000 57528
Thu Oct 29 00:00:00 GMT 2015 sonji13 Willow oak Quercus phellos 50% Leaf Fall 40.000000000000000 -100.000000000000000 57529
Tue Nov 17 00:00:00 GMT 2015 robinv1_Washington_College_reporter46 Willow oak Quercus phellos Leaves Unfolding (None) 39.217300000000000 -76.068650000000000 57687
Tue Nov 17 00:00:00 GMT 2015 robinv1_Washington_College_reporter46 Willow oak Quercus phellos Leaves Changing Color (Middle) 39.217300000000000 -76.068650000000000 57688
Tue Nov 17 00:00:00 GMT 2015 robinv1_Washington_College_reporter46 Willow oak Quercus phellos Leaves Dropping (Middle) 39.217300000000000 -76.068650000000000 57689
Tue Nov 17 00:00:00 GMT 2015 robinv1_Washington_College_reporter46 Willow oak Quercus phellos Flowers (None) 39.217300000000000 -76.068650000000000 57690
Tue Nov 17 00:00:00 GMT 2015 robinv1_Washington_College_reporter46 Willow oak Quercus phellos Fruit (None) 39.217300000000000 -76.068650000000000 57691
Tue Dec 01 00:00:00 GMT 2015 robinv1_Washington_College_reporter46 Willow oak Quercus phellos Leaves Unfolding (None) 39.217300000000000 -76.068650000000000 57702
Tue Dec 01 00:00:00 GMT 2015 robinv1_Washington_College_reporter46 Willow oak Quercus phellos Leaves Changing Color (Late) 39.217300000000000 -76.068650000000000 57703
Tue Dec 01 00:00:00 GMT 2015 robinv1_Washington_College_reporter46 Willow oak Quercus phellos Leaves Dropping (Late) 39.217300000000000 -76.068650000000000 57704
Tue Dec 01 00:00:00 GMT 2015 robinv1_Washington_College_reporter46 Willow oak Quercus phellos Flowers (None) 39.217300000000000 -76.068650000000000 57705
Tue Dec 01 00:00:00 GMT 2015 robinv1_Washington_College_reporter46 Willow oak Quercus phellos Fruit (None) 39.217300000000000 -76.068650000000000 57706
Mon Oct 19 00:00:00 GMT 2015 robinv1_Washington_College_reporter36 Willow oak Quercus phellos Leaves Unfolding (None) 39.218870000000000 -76.069000000000000 57820
Mon Oct 19 00:00:00 GMT 2015 robinv1_Washington_College_reporter36 Willow oak Quercus phellos Leaves Changing Color (Early) 39.218870000000000 -76.069000000000000 57821
Mon Oct 19 00:00:00 GMT 2015 robinv1_Washington_College_reporter36 Willow oak Quercus phellos Leaves Dropping (Early) 39.218870000000000 -76.069000000000000 57822
Mon Oct 19 00:00:00 GMT 2015 robinv1_Washington_College_reporter36 Willow oak Quercus phellos Flowers (None) 39.218870000000000 -76.069000000000000 57823
Mon Oct 19 00:00:00 GMT 2015 robinv1_Washington_College_reporter36 Willow oak Quercus phellos Fruit (None) 39.218870000000000 -76.069000000000000 57824
Mon Nov 02 00:00:00 GMT 2015 robinv1_Washington_College_reporter36 Willow oak Quercus phellos Leaves Unfolding (None) 39.207410000000000 -76.108800000000000 57830
Mon Nov 02 00:00:00 GMT 2015 robinv1_Washington_College_reporter36 Willow oak Quercus phellos Leaves Changing Color (Middle) 39.207410000000000 -76.108800000000000 57831
Mon Nov 02 00:00:00 GMT 2015 robinv1_Washington_College_reporter36 Willow oak Quercus phellos Leaves Dropping (Middle) 39.207410000000000 -76.108800000000000 57832
Mon Nov 02 00:00:00 GMT 2015 robinv1_Washington_College_reporter36 Willow oak Quercus phellos Flowers (None) 39.207410000000000 -76.108800000000000 57833
Mon Nov 02 00:00:00 GMT 2015 robinv1_Washington_College_reporter36 Willow oak Quercus phellos Fruit (None) 39.207410000000000 -76.108800000000000 57834
Mon Sep 28 00:00:00 GMT 2015 robinv1_Washington_College_reporter36 Willow oak Quercus phellos Leaves Unfolding (None) 39.218870000000000 -76.069000000000000 57805
Mon Sep 28 00:00:00 GMT 2015 robinv1_Washington_College_reporter36 Willow oak Quercus phellos Leaves Changing Color (Early) 39.218870000000000 -76.069000000000000 57806
Mon Sep 28 00:00:00 GMT 2015 robinv1_Washington_College_reporter36 Willow oak Quercus phellos Leaves Dropping (Early) 39.218870000000000 -76.069000000000000 57807
Mon Sep 28 00:00:00 GMT 2015 robinv1_Washington_College_reporter36 Willow oak Quercus phellos Flowers (None) 39.218870000000000 -76.069000000000000 57808
Mon Sep 28 00:00:00 GMT 2015 robinv1_Washington_College_reporter36 Willow oak Quercus phellos Fruit (None) 39.218870000000000 -76.069000000000000 57809
Mon Oct 05 00:00:00 GMT 2015 robinv1_Washington_College_reporter36 Willow oak Quercus phellos Leaves Unfolding (None) 39.218870000000000 -76.069000000000000 57810
Mon Oct 05 00:00:00 GMT 2015 robinv1_Washington_College_reporter36 Willow oak Quercus phellos Leaves Changing Color (Early) 39.218870000000000 -76.069000000000000 57811
Mon Oct 05 00:00:00 GMT 2015 robinv1_Washington_College_reporter36 Willow oak Quercus phellos Leaves Dropping (Early) 39.218870000000000 -76.069000000000000 57812
Mon Oct 05 00:00:00 GMT 2015 robinv1_Washington_College_reporter36 Willow oak Quercus phellos Flowers (None) 39.218870000000000 -76.069000000000000 57813
Mon Oct 05 00:00:00 GMT 2015 robinv1_Washington_College_reporter36 Willow oak Quercus phellos Fruit (None) 39.218870000000000 -76.069000000000000 57814
Mon Oct 26 00:00:00 GMT 2015 robinv1_Washington_College_reporter36 Willow oak Quercus phellos Leaves Unfolding (None) 39.207410000000000 -76.108800000000000 57825
Mon Oct 26 00:00:00 GMT 2015 robinv1_Washington_College_reporter36 Willow oak Quercus phellos Leaves Changing Color (Early) 39.207410000000000 -76.108800000000000 57826
Mon Oct 26 00:00:00 GMT 2015 robinv1_Washington_College_reporter36 Willow oak Quercus phellos Leaves Dropping (Early) 39.207410000000000 -76.108800000000000 57827
Mon Oct 26 00:00:00 GMT 2015 robinv1_Washington_College_reporter36 Willow oak Quercus phellos Flowers (None) 39.207410000000000 -76.108800000000000 57828
Mon Oct 26 00:00:00 GMT 2015 robinv1_Washington_College_reporter36 Willow oak Quercus phellos Fruit (None) 39.207410000000000 -76.108800000000000 57829
Mon Oct 12 00:00:00 GMT 2015 robinv1_Washington_College_reporter36 Willow oak Quercus phellos Leaves Unfolding (None) 39.218870000000000 -76.069000000000000 57815
Mon Oct 12 00:00:00 GMT 2015 robinv1_Washington_College_reporter36 Willow oak Quercus phellos Leaves Changing Color (Early) 39.218870000000000 -76.069000000000000 57816
Mon Oct 12 00:00:00 GMT 2015 robinv1_Washington_College_reporter36 Willow oak Quercus phellos Leaves Dropping (Early) 39.218870000000000 -76.069000000000000 57817
Mon Oct 12 00:00:00 GMT 2015 robinv1_Washington_College_reporter36 Willow oak Quercus phellos Flowers (None) 39.218870000000000 -76.069000000000000 57818
Mon Oct 12 00:00:00 GMT 2015 robinv1_Washington_College_reporter36 Willow oak Quercus phellos Fruit (None) 39.218870000000000 -76.069000000000000 57819
Mon Nov 30 00:00:00 GMT 2015 robinv1_Washington_College_reporter36 Willow oak Quercus phellos Leaves Unfolding (None) 39.207410000000000 -76.108800000000000 57840
Mon Nov 30 00:00:00 GMT 2015 robinv1_Washington_College_reporter36 Willow oak Quercus phellos Leaves Changing Color (Late) 39.207410000000000 -76.108800000000000 57841
Mon Nov 30 00:00:00 GMT 2015 robinv1_Washington_College_reporter36 Willow oak Quercus phellos Leaves Dropping (Middle) 39.207410000000000 -76.108800000000000 57842
Mon Nov 30 00:00:00 GMT 2015 robinv1_Washington_College_reporter36 Willow oak Quercus phellos Flowers (None) 39.207410000000000 -76.108800000000000 57843
Mon Nov 30 00:00:00 GMT 2015 robinv1_Washington_College_reporter36 Willow oak Quercus phellos Fruit (None) 39.207410000000000 -76.108800000000000 57844
Mon Nov 09 00:00:00 GMT 2015 robinv1_Washington_College_reporter36 Willow oak Quercus phellos Leaves Unfolding (None) 39.207410000000000 -76.108800000000000 57835
Mon Nov 09 00:00:00 GMT 2015 robinv1_Washington_College_reporter36 Willow oak Quercus phellos Leaves Changing Color (Middle) 39.207410000000000 -76.108800000000000 57836
Mon Nov 09 00:00:00 GMT 2015 robinv1_Washington_College_reporter36 Willow oak Quercus phellos Leaves Dropping (Middle) 39.207410000000000 -76.108800000000000 57837
Mon Nov 09 00:00:00 GMT 2015 robinv1_Washington_College_reporter36 Willow oak Quercus phellos Flowers (None) 39.207410000000000 -76.108800000000000 57838
Mon Nov 09 00:00:00 GMT 2015 robinv1_Washington_College_reporter36 Willow oak Quercus phellos Fruit (None) 39.207410000000000 -76.108800000000000 57839
Mon Oct 05 00:00:00 GMT 2015 robinv1_Washington_College_reporter55 Willow oak Quercus phellos Leaves Unfolding (Late) 39.217300000000000 -76.068650000000000 57908
Mon Oct 05 00:00:00 GMT 2015 robinv1_Washington_College_reporter55 Willow oak Quercus phellos Leaves Changing Color (Middle) 39.217300000000000 -76.068650000000000 57909
Mon Oct 05 00:00:00 GMT 2015 robinv1_Washington_College_reporter55 Willow oak Quercus phellos Leaves Dropping (None) 39.217300000000000 -76.068650000000000 57910
Mon Oct 05 00:00:00 GMT 2015 robinv1_Washington_College_reporter55 Willow oak Quercus phellos Flowers (None) 39.217300000000000 -76.068650000000000 57911
Mon Oct 05 00:00:00 GMT 2015 robinv1_Washington_College_reporter55 Willow oak Quercus phellos Fruit (None) 39.217300000000000 -76.068650000000000 57912
Mon Sep 28 00:00:00 GMT 2015 robinv1_Washington_College_reporter55 Willow oak Quercus phellos Leaves Unfolding (Late) 39.217300000000000 -76.068650000000000 57903
Mon Sep 28 00:00:00 GMT 2015 robinv1_Washington_College_reporter55 Willow oak Quercus phellos Leaves Changing Color (None) 39.217300000000000 -76.068650000000000 57904
Mon Sep 28 00:00:00 GMT 2015 robinv1_Washington_College_reporter55 Willow oak Quercus phellos Leaves Dropping (None) 39.217300000000000 -76.068650000000000 57905
Mon Sep 28 00:00:00 GMT 2015 robinv1_Washington_College_reporter55 Willow oak Quercus phellos Flowers (None) 39.217300000000000 -76.068650000000000 57906
Mon Sep 28 00:00:00 GMT 2015 robinv1_Washington_College_reporter55 Willow oak Quercus phellos Fruit (None) 39.217300000000000 -76.068650000000000 57907
Mon Nov 02 00:00:00 GMT 2015 robinv1_Washington_College_reporter55 Willow oak Quercus phellos Leaves Unfolding (Late) 39.217300000000000 -76.068650000000000 57930
Mon Nov 02 00:00:00 GMT 2015 robinv1_Washington_College_reporter55 Willow oak Quercus phellos Leaves Changing Color (Middle) 39.217300000000000 -76.068650000000000 57931
Mon Nov 02 00:00:00 GMT 2015 robinv1_Washington_College_reporter55 Willow oak Quercus phellos Leaves Dropping (Middle) 39.217300000000000 -76.068650000000000 57932
Mon Nov 02 00:00:00 GMT 2015 robinv1_Washington_College_reporter55 Willow oak Quercus phellos Flowers (None) 39.217300000000000 -76.068650000000000 57933
Mon Nov 02 00:00:00 GMT 2015 robinv1_Washington_College_reporter55 Willow oak Quercus phellos Fruit (None) 39.217300000000000 -76.068650000000000 57934
Thu Dec 03 00:00:00 GMT 2015 robinv1_Washington_College_reporter55 Willow oak Quercus phellos Leaves Unfolding (Late) 39.217300000000000 -76.068650000000000 57935
Thu Dec 03 00:00:00 GMT 2015 robinv1_Washington_College_reporter55 Willow oak Quercus phellos Leaves Changing Color (Middle) 39.217300000000000 -76.068650000000000 57936
Thu Dec 03 00:00:00 GMT 2015 robinv1_Washington_College_reporter55 Willow oak Quercus phellos Leaves Dropping (Middle) 39.217300000000000 -76.068650000000000 57937
Thu Dec 03 00:00:00 GMT 2015 robinv1_Washington_College_reporter55 Willow oak Quercus phellos Flowers (None) 39.217300000000000 -76.068650000000000 57938
Thu Dec 03 00:00:00 GMT 2015 robinv1_Washington_College_reporter55 Willow oak Quercus phellos Fruit (None) 39.217300000000000 -76.068650000000000 57939
Mon Oct 19 00:00:00 GMT 2015 robinv1_Washington_College_reporter55 Willow oak Quercus phellos Leaves Unfolding (Late) 39.217300000000000 -76.068650000000000 57918
Mon Oct 19 00:00:00 GMT 2015 robinv1_Washington_College_reporter55 Willow oak Quercus phellos Leaves Changing Color (Middle) 39.217300000000000 -76.068650000000000 57919
Mon Oct 19 00:00:00 GMT 2015 robinv1_Washington_College_reporter55 Willow oak Quercus phellos Leaves Dropping (None) 39.217300000000000 -76.068650000000000 57920
Mon Oct 19 00:00:00 GMT 2015 robinv1_Washington_College_reporter55 Willow oak Quercus phellos Flowers (None) 39.217300000000000 -76.068650000000000 57921
Mon Oct 19 00:00:00 GMT 2015 robinv1_Washington_College_reporter55 Willow oak Quercus phellos Fruit (None) 39.217300000000000 -76.068650000000000 57922
Mon Nov 30 00:00:00 GMT 2015 robinv1_Washington_College_reporter55 Willow oak Quercus phellos Leaves Unfolding (Late) 39.217300000000000 -76.068650000000000 57940
Mon Nov 30 00:00:00 GMT 2015 robinv1_Washington_College_reporter55 Willow oak Quercus phellos Leaves Changing Color (Late) 39.217300000000000 -76.068650000000000 57941
Mon Nov 30 00:00:00 GMT 2015 robinv1_Washington_College_reporter55 Willow oak Quercus phellos Leaves Dropping (Middle) 39.217300000000000 -76.068650000000000 57942
Mon Nov 30 00:00:00 GMT 2015 robinv1_Washington_College_reporter55 Willow oak Quercus phellos Flowers (None) 39.217300000000000 -76.068650000000000 57943
Mon Nov 30 00:00:00 GMT 2015 robinv1_Washington_College_reporter55 Willow oak Quercus phellos Fruit (None) 39.217300000000000 -76.068650000000000 57944
Mon Oct 12 00:00:00 GMT 2015 robinv1_Washington_College_reporter55 Willow oak Quercus phellos Leaves Unfolding (Late) 39.217300000000000 -76.068650000000000 57913
Mon Oct 12 00:00:00 GMT 2015 robinv1_Washington_College_reporter55 Willow oak Quercus phellos Leaves Changing Color (Middle) 39.217300000000000 -76.068650000000000 57914
Mon Oct 12 00:00:00 GMT 2015 robinv1_Washington_College_reporter55 Willow oak Quercus phellos Leaves Dropping (None) 39.217300000000000 -76.068650000000000 57915
Mon Oct 12 00:00:00 GMT 2015 robinv1_Washington_College_reporter55 Willow oak Quercus phellos Flowers (None) 39.217300000000000 -76.068650000000000 57916
Mon Oct 12 00:00:00 GMT 2015 robinv1_Washington_College_reporter55 Willow oak Quercus phellos Fruit (None) 39.217300000000000 -76.068650000000000 57917
Mon Oct 26 00:00:00 GMT 2015 robinv1_Washington_College_reporter55 Willow oak Quercus phellos Leaves Unfolding (Late) 39.217300000000000 -76.068650000000000 57924
Mon Oct 26 00:00:00 GMT 2015 robinv1_Washington_College_reporter55 Willow oak Quercus phellos Leaves Changing Color (Middle) 39.217300000000000 -76.068650000000000 57925
Mon Oct 26 00:00:00 GMT 2015 robinv1_Washington_College_reporter55 Willow oak Quercus phellos Leaves Dropping (None) 39.217300000000000 -76.068650000000000 57926
Mon Oct 26 00:00:00 GMT 2015 robinv1_Washington_College_reporter55 Willow oak Quercus phellos Flowers (None) 39.217300000000000 -76.068650000000000 57927
Mon Oct 26 00:00:00 GMT 2015 robinv1_Washington_College_reporter55 Willow oak Quercus phellos Fruit (None) 39.217300000000000 -76.068650000000000 57928
Thu Dec 03 00:00:00 GMT 2015 robinv1_Washington_College_reporter55 Willow oak Quercus phellos Leaves Unfolding (Late) 39.217300000000000 -76.068650000000000 58014
Thu Dec 03 00:00:00 GMT 2015 robinv1_Washington_College_reporter55 Willow oak Quercus phellos Leaves Changing Color (Late) 39.217300000000000 -76.068650000000000 58015
Thu Dec 03 00:00:00 GMT 2015 robinv1_Washington_College_reporter55 Willow oak Quercus phellos Leaves Dropping (Middle) 39.217300000000000 -76.068650000000000 58016
Thu Dec 03 00:00:00 GMT 2015 robinv1_Washington_College_reporter55 Willow oak Quercus phellos Flowers (None) 39.217300000000000 -76.068650000000000 58017
Thu Dec 03 00:00:00 GMT 2015 robinv1_Washington_College_reporter55 Willow oak Quercus phellos Fruit (None) 39.217300000000000 -76.068650000000000 58018
Mon Nov 09 00:00:00 GMT 2015 robinv1_Washington_College_reporter55 Willow oak Quercus phellos Leaves Unfolding (Late) 39.217300000000000 -76.068650000000000 58009
Mon Nov 09 00:00:00 GMT 2015 robinv1_Washington_College_reporter55 Willow oak Quercus phellos Leaves Changing Color (Middle) 39.217300000000000 -76.068650000000000 58010
Mon Nov 09 00:00:00 GMT 2015 robinv1_Washington_College_reporter55 Willow oak Quercus phellos Leaves Dropping (Middle) 39.217300000000000 -76.068650000000000 58011
Mon Nov 09 00:00:00 GMT 2015 robinv1_Washington_College_reporter55 Willow oak Quercus phellos Flowers (None) 39.217300000000000 -76.068650000000000 58012
Mon Nov 09 00:00:00 GMT 2015 robinv1_Washington_College_reporter55 Willow oak Quercus phellos Fruit (None) 39.217300000000000 -76.068650000000000 58013
Mon Sep 28 00:00:00 GMT 2015 robinv1_Washington_College_reporter45 Willow oak Quercus phellos Leaves Unfolding (None) 39.218870000000000 -76.069000000000000 58475
Mon Sep 28 00:00:00 GMT 2015 robinv1_Washington_College_reporter45 Willow oak Quercus phellos Leaves Changing Color (Early) 39.218870000000000 -76.069000000000000 58476
Mon Sep 28 00:00:00 GMT 2015 robinv1_Washington_College_reporter45 Willow oak Quercus phellos Leaves Dropping (Early) 39.218870000000000 -76.069000000000000 58477
Mon Sep 28 00:00:00 GMT 2015 robinv1_Washington_College_reporter45 Willow oak Quercus phellos Flowers (None) 39.218870000000000 -76.069000000000000 58478
Mon Sep 28 00:00:00 GMT 2015 robinv1_Washington_College_reporter45 Willow oak Quercus phellos Fruit (None) 39.218870000000000 -76.069000000000000 58479
Mon Oct 05 00:00:00 GMT 2015 robinv1_Washington_College_reporter45 Willow oak Quercus phellos Leaves Unfolding (None) 39.218870000000000 -76.069000000000000 58480
Mon Oct 05 00:00:00 GMT 2015 robinv1_Washington_College_reporter45 Willow oak Quercus phellos Leaves Changing Color (Early) 39.218870000000000 -76.069000000000000 58481
Mon Oct 05 00:00:00 GMT 2015 robinv1_Washington_College_reporter45 Willow oak Quercus phellos Leaves Dropping (Early) 39.218870000000000 -76.069000000000000 58482
Mon Oct 05 00:00:00 GMT 2015 robinv1_Washington_College_reporter45 Willow oak Quercus phellos Flowers (None) 39.218870000000000 -76.069000000000000 58483
Mon Oct 05 00:00:00 GMT 2015 robinv1_Washington_College_reporter45 Willow oak Quercus phellos Fruit (None) 39.218870000000000 -76.069000000000000 58484
Mon Oct 12 00:00:00 GMT 2015 robinv1_Washington_College_reporter45 Willow oak Quercus phellos Leaves Unfolding (Early) 39.218870000000000 -76.069000000000000 58485
Mon Oct 12 00:00:00 GMT 2015 robinv1_Washington_College_reporter45 Willow oak Quercus phellos Leaves Changing Color (Early) 39.218870000000000 -76.069000000000000 58486
Mon Oct 12 00:00:00 GMT 2015 robinv1_Washington_College_reporter45 Willow oak Quercus phellos Leaves Dropping (None) 39.218870000000000 -76.069000000000000 58487
Mon Oct 12 00:00:00 GMT 2015 robinv1_Washington_College_reporter45 Willow oak Quercus phellos Flowers (None) 39.218870000000000 -76.069000000000000 58488
Mon Oct 12 00:00:00 GMT 2015 robinv1_Washington_College_reporter45 Willow oak Quercus phellos Fruit (None) 39.218870000000000 -76.069000000000000 58489
Mon Oct 19 00:00:00 GMT 2015 robinv1_Washington_College_reporter45 Willow oak Quercus phellos Leaves Unfolding (None) 39.218870000000000 -76.069000000000000 58490
Mon Oct 19 00:00:00 GMT 2015 robinv1_Washington_College_reporter45 Willow oak Quercus phellos Leaves Changing Color (Middle) 39.218870000000000 -76.069000000000000 58491
Mon Oct 19 00:00:00 GMT 2015 robinv1_Washington_College_reporter45 Willow oak Quercus phellos Leaves Dropping (Middle) 39.218870000000000 -76.069000000000000 58492
Mon Oct 19 00:00:00 GMT 2015 robinv1_Washington_College_reporter45 Willow oak Quercus phellos Flowers (None) 39.218870000000000 -76.069000000000000 58493
Mon Oct 19 00:00:00 GMT 2015 robinv1_Washington_College_reporter45 Willow oak Quercus phellos Fruit (None) 39.218870000000000 -76.069000000000000 58494
Mon Oct 26 00:00:00 GMT 2015 robinv1_Washington_College_reporter45 Willow oak Quercus phellos Leaves Unfolding (None) 39.218870000000000 -76.069000000000000 58495
Mon Oct 26 00:00:00 GMT 2015 robinv1_Washington_College_reporter45 Willow oak Quercus phellos Leaves Changing Color (Middle) 39.218870000000000 -76.069000000000000 58496
Mon Oct 26 00:00:00 GMT 2015 robinv1_Washington_College_reporter45 Willow oak Quercus phellos Leaves Dropping (Middle) 39.218870000000000 -76.069000000000000 58497
Mon Oct 26 00:00:00 GMT 2015 robinv1_Washington_College_reporter45 Willow oak Quercus phellos Flowers (None) 39.218870000000000 -76.069000000000000 58498
Mon Oct 26 00:00:00 GMT 2015 robinv1_Washington_College_reporter45 Willow oak Quercus phellos Fruit (None) 39.218870000000000 -76.069000000000000 58499
Mon Nov 02 00:00:00 GMT 2015 robinv1_Washington_College_reporter45 Willow oak Quercus phellos Leaves Unfolding (None) 39.218870000000000 -76.069000000000000 58500
Mon Nov 02 00:00:00 GMT 2015 robinv1_Washington_College_reporter45 Willow oak Quercus phellos Leaves Changing Color (Middle) 39.218870000000000 -76.069000000000000 58501
Mon Nov 02 00:00:00 GMT 2015 robinv1_Washington_College_reporter45 Willow oak Quercus phellos Leaves Dropping (Middle) 39.218870000000000 -76.069000000000000 58502
Mon Nov 02 00:00:00 GMT 2015 robinv1_Washington_College_reporter45 Willow oak Quercus phellos Flowers (None) 39.218870000000000 -76.069000000000000 58503
Mon Nov 02 00:00:00 GMT 2015 robinv1_Washington_College_reporter45 Willow oak Quercus phellos Fruit (None) 39.218870000000000 -76.069000000000000 58504
Mon Nov 09 00:00:00 GMT 2015 robinv1_Washington_College_reporter45 Willow oak Quercus phellos Leaves Unfolding (None) 39.218870000000000 -76.069000000000000 58505
Mon Nov 09 00:00:00 GMT 2015 robinv1_Washington_College_reporter45 Willow oak Quercus phellos Leaves Changing Color (Middle) 39.218870000000000 -76.069000000000000 58506
Mon Nov 09 00:00:00 GMT 2015 robinv1_Washington_College_reporter45 Willow oak Quercus phellos Leaves Dropping (Middle) 39.218870000000000 -76.069000000000000 58507
Mon Nov 09 00:00:00 GMT 2015 robinv1_Washington_College_reporter45 Willow oak Quercus phellos Flowers (None) 39.218870000000000 -76.069000000000000 58508
Mon Nov 09 00:00:00 GMT 2015 robinv1_Washington_College_reporter45 Willow oak Quercus phellos Fruit (None) 39.218870000000000 -76.069000000000000 58509
Mon Sep 28 00:00:00 GMT 2015 robinv1_Washington_College_reporter59 Willow oak Quercus phellos Leaves Unfolding (None) 39.218870000000000 -76.069000000000000 58610
Mon Sep 28 00:00:00 GMT 2015 robinv1_Washington_College_reporter59 Willow oak Quercus phellos Leaves Changing Color (None) 39.218870000000000 -76.069000000000000 58611
Mon Sep 28 00:00:00 GMT 2015 robinv1_Washington_College_reporter59 Willow oak Quercus phellos Leaves Dropping (None) 39.218870000000000 -76.069000000000000 58612
Mon Sep 28 00:00:00 GMT 2015 robinv1_Washington_College_reporter59 Willow oak Quercus phellos Flowers (None) 39.218870000000000 -76.069000000000000 58613
Mon Sep 28 00:00:00 GMT 2015 robinv1_Washington_College_reporter59 Willow oak Quercus phellos Fruit (None) 39.218870000000000 -76.069000000000000 58614
Mon Oct 05 00:00:00 GMT 2015 robinv1_Washington_College_reporter59 Willow oak Quercus phellos Leaves Unfolding (None) 39.218870000000000 -76.069000000000000 58615
Mon Oct 05 00:00:00 GMT 2015 robinv1_Washington_College_reporter59 Willow oak Quercus phellos Leaves Changing Color (None) 39.218870000000000 -76.069000000000000 58616
Mon Oct 05 00:00:00 GMT 2015 robinv1_Washington_College_reporter59 Willow oak Quercus phellos Leaves Dropping (None) 39.218870000000000 -76.069000000000000 58617
Mon Oct 05 00:00:00 GMT 2015 robinv1_Washington_College_reporter59 Willow oak Quercus phellos Flowers (None) 39.218870000000000 -76.069000000000000 58618
Mon Oct 05 00:00:00 GMT 2015 robinv1_Washington_College_reporter59 Willow oak Quercus phellos Fruit (None) 39.218870000000000 -76.069000000000000 58619
Mon Oct 12 00:00:00 GMT 2015 robinv1_Washington_College_reporter59 Willow oak Quercus phellos Leaves Unfolding (Early) 39.218870000000000 -76.069000000000000 58620
Mon Oct 12 00:00:00 GMT 2015 robinv1_Washington_College_reporter59 Willow oak Quercus phellos Leaves Changing Color (Early) 39.218870000000000 -76.069000000000000 58621
Mon Oct 12 00:00:00 GMT 2015 robinv1_Washington_College_reporter59 Willow oak Quercus phellos Leaves Dropping (Early) 39.218870000000000 -76.069000000000000 58622
Mon Oct 12 00:00:00 GMT 2015 robinv1_Washington_College_reporter59 Willow oak Quercus phellos Flowers (None) 39.218870000000000 -76.069000000000000 58623
Mon Oct 12 00:00:00 GMT 2015 robinv1_Washington_College_reporter59 Willow oak Quercus phellos Fruit (None) 39.218870000000000 -76.069000000000000 58624
Mon Oct 19 00:00:00 GMT 2015 robinv1_Washington_College_reporter59 Willow oak Quercus phellos Leaves Unfolding (Early) 39.218870000000000 -76.069000000000000 58625
Mon Oct 19 00:00:00 GMT 2015 robinv1_Washington_College_reporter59 Willow oak Quercus phellos Leaves Changing Color (Early) 39.218870000000000 -76.069000000000000 58626
Mon Oct 19 00:00:00 GMT 2015 robinv1_Washington_College_reporter59 Willow oak Quercus phellos Leaves Dropping (Early) 39.218870000000000 -76.069000000000000 58627
Mon Oct 19 00:00:00 GMT 2015 robinv1_Washington_College_reporter59 Willow oak Quercus phellos Flowers (None) 39.218870000000000 -76.069000000000000 58628
Mon Oct 19 00:00:00 GMT 2015 robinv1_Washington_College_reporter59 Willow oak Quercus phellos Fruit (None) 39.218870000000000 -76.069000000000000 58629
Mon Oct 26 00:00:00 GMT 2015 robinv1_Washington_College_reporter59 Willow oak Quercus phellos Leaves Unfolding (Early) 39.218870000000000 -76.069000000000000 58630
Mon Oct 26 00:00:00 GMT 2015 robinv1_Washington_College_reporter59 Willow oak Quercus phellos Leaves Changing Color (Early) 39.218870000000000 -76.069000000000000 58631
Mon Oct 26 00:00:00 GMT 2015 robinv1_Washington_College_reporter59 Willow oak Quercus phellos Leaves Dropping (Early) 39.218870000000000 -76.069000000000000 58632
Mon Oct 26 00:00:00 GMT 2015 robinv1_Washington_College_reporter59 Willow oak Quercus phellos Flowers (None) 39.218870000000000 -76.069000000000000 58633
Mon Oct 26 00:00:00 GMT 2015 robinv1_Washington_College_reporter59 Willow oak Quercus phellos Fruit (None) 39.218870000000000 -76.069000000000000 58634
Mon Nov 02 00:00:00 GMT 2015 robinv1_Washington_College_reporter59 Willow oak Quercus phellos Leaves Unfolding (Middle) 39.218870000000000 -76.069000000000000 58635
Mon Nov 02 00:00:00 GMT 2015 robinv1_Washington_College_reporter59 Willow oak Quercus phellos Leaves Changing Color (Middle) 39.218870000000000 -76.069000000000000 58636
Mon Nov 02 00:00:00 GMT 2015 robinv1_Washington_College_reporter59 Willow oak Quercus phellos Leaves Dropping (Middle) 39.218870000000000 -76.069000000000000 58637
Mon Nov 02 00:00:00 GMT 2015 robinv1_Washington_College_reporter59 Willow oak Quercus phellos Flowers (None) 39.218870000000000 -76.069000000000000 58638
Mon Nov 02 00:00:00 GMT 2015 robinv1_Washington_College_reporter59 Willow oak Quercus phellos Fruit (None) 39.218870000000000 -76.069000000000000 58639
Mon Nov 09 00:00:00 GMT 2015 robinv1_Washington_College_reporter59 Willow oak Quercus phellos Leaves Unfolding (Middle) 39.218870000000000 -76.069000000000000 58640
Mon Nov 09 00:00:00 GMT 2015 robinv1_Washington_College_reporter59 Willow oak Quercus phellos Leaves Changing Color (Middle) 39.218870000000000 -76.069000000000000 58641
Mon Nov 09 00:00:00 GMT 2015 robinv1_Washington_College_reporter59 Willow oak Quercus phellos Leaves Dropping (Middle) 39.218870000000000 -76.069000000000000 58642
Mon Nov 09 00:00:00 GMT 2015 robinv1_Washington_College_reporter59 Willow oak Quercus phellos Flowers (None) 39.218870000000000 -76.069000000000000 58643
Mon Nov 09 00:00:00 GMT 2015 robinv1_Washington_College_reporter59 Willow oak Quercus phellos Fruit (None) 39.218870000000000 -76.069000000000000 58644
Mon Nov 30 00:00:00 GMT 2015 robinv1_Washington_College_reporter59 Willow oak Quercus phellos Leaves Unfolding (Late) 39.218870000000000 -76.069000000000000 58645
Mon Nov 30 00:00:00 GMT 2015 robinv1_Washington_College_reporter59 Willow oak Quercus phellos Leaves Changing Color (Late) 39.218870000000000 -76.069000000000000 58646
Mon Nov 30 00:00:00 GMT 2015 robinv1_Washington_College_reporter59 Willow oak Quercus phellos Leaves Dropping (Late) 39.218870000000000 -76.069000000000000 58647
Mon Nov 30 00:00:00 GMT 2015 robinv1_Washington_College_reporter59 Willow oak Quercus phellos Flowers (None) 39.218870000000000 -76.069000000000000 58648
Mon Nov 30 00:00:00 GMT 2015 robinv1_Washington_College_reporter59 Willow oak Quercus phellos Fruit (None) 39.218870000000000 -76.069000000000000 58649
Sun Dec 06 00:00:00 GMT 2015 robinv1_Washington_College_reporter45 Willow oak Quercus phellos Leaves Unfolding (None) 39.218870000000000 -76.069000000000000 59124
Sun Dec 06 00:00:00 GMT 2015 robinv1_Washington_College_reporter45 Willow oak Quercus phellos Leaves Changing Color (Late) 39.218870000000000 -76.069000000000000 59125
Sun Dec 06 00:00:00 GMT 2015 robinv1_Washington_College_reporter45 Willow oak Quercus phellos Leaves Dropping (Late) 39.218870000000000 -76.069000000000000 59126
Sun Dec 06 00:00:00 GMT 2015 robinv1_Washington_College_reporter45 Willow oak Quercus phellos Flowers (None) 39.218870000000000 -76.069000000000000 59127
Sun Dec 06 00:00:00 GMT 2015 robinv1_Washington_College_reporter45 Willow oak Quercus phellos Fruit (None) 39.218870000000000 -76.069000000000000 59128
Mon Sep 28 00:00:00 GMT 2015 robinv1_Washington_College_reporter52 Willow oak Quercus phellos Leaves Unfolding (None) 39.216927000000000 -76.068821000000000 59579
Mon Sep 28 00:00:00 GMT 2015 robinv1_Washington_College_reporter52 Willow oak Quercus phellos Leaves Changing Color (None) 39.216927000000000 -76.068821000000000 59580
Mon Sep 28 00:00:00 GMT 2015 robinv1_Washington_College_reporter52 Willow oak Quercus phellos Leaves Dropping (None) 39.216927000000000 -76.068821000000000 59581
Mon Sep 28 00:00:00 GMT 2015 robinv1_Washington_College_reporter52 Willow oak Quercus phellos Flowers (Early) 39.216927000000000 -76.068821000000000 59582
Mon Sep 28 00:00:00 GMT 2015 robinv1_Washington_College_reporter52 Willow oak Quercus phellos Fruit (Early) 39.216927000000000 -76.068821000000000 59583
Mon Oct 05 00:00:00 GMT 2015 robinv1_Washington_College_reporter52 Willow oak Quercus phellos Leaves Unfolding (None) 39.216927000000000 -76.068821000000000 59589
Mon Oct 05 00:00:00 GMT 2015 robinv1_Washington_College_reporter52 Willow oak Quercus phellos Leaves Changing Color (None) 39.216927000000000 -76.068821000000000 59590
Mon Oct 05 00:00:00 GMT 2015 robinv1_Washington_College_reporter52 Willow oak Quercus phellos Leaves Dropping (None) 39.216927000000000 -76.068821000000000 59591
Mon Oct 05 00:00:00 GMT 2015 robinv1_Washington_College_reporter52 Willow oak Quercus phellos Flowers (Early) 39.216927000000000 -76.068821000000000 59592
Mon Oct 05 00:00:00 GMT 2015 robinv1_Washington_College_reporter52 Willow oak Quercus phellos Fruit (Early) 39.216927000000000 -76.068821000000000 59593
Mon Oct 12 00:00:00 GMT 2015 robinv1_Washington_College_reporter52 Willow oak Quercus phellos Leaves Unfolding (None) 39.216927000000000 -76.068821000000000 59599
Mon Oct 12 00:00:00 GMT 2015 robinv1_Washington_College_reporter52 Willow oak Quercus phellos Leaves Changing Color (Early) 39.216927000000000 -76.068821000000000 59600
Mon Oct 12 00:00:00 GMT 2015 robinv1_Washington_College_reporter52 Willow oak Quercus phellos Leaves Dropping (Early) 39.216927000000000 -76.068821000000000 59601
Mon Oct 12 00:00:00 GMT 2015 robinv1_Washington_College_reporter52 Willow oak Quercus phellos Flowers (Early) 39.216927000000000 -76.068821000000000 59602
Mon Oct 12 00:00:00 GMT 2015 robinv1_Washington_College_reporter52 Willow oak Quercus phellos Fruit (Early) 39.216927000000000 -76.068821000000000 59603
Mon Oct 19 00:00:00 GMT 2015 robinv1_Washington_College_reporter52 Willow oak Quercus phellos Leaves Unfolding (None) 39.216927000000000 -76.068821000000000 59604
Mon Oct 19 00:00:00 GMT 2015 robinv1_Washington_College_reporter52 Willow oak Quercus phellos Leaves Changing Color (Early) 39.216927000000000 -76.068821000000000 59605
Mon Oct 19 00:00:00 GMT 2015 robinv1_Washington_College_reporter52 Willow oak Quercus phellos Leaves Dropping (Early) 39.216927000000000 -76.068821000000000 59606
Mon Oct 19 00:00:00 GMT 2015 robinv1_Washington_College_reporter52 Willow oak Quercus phellos Flowers (Early) 39.216927000000000 -76.068821000000000 59607
Mon Oct 19 00:00:00 GMT 2015 robinv1_Washington_College_reporter52 Willow oak Quercus phellos Fruit (Early) 39.216927000000000 -76.068821000000000 59608
Mon Oct 26 00:00:00 GMT 2015 robinv1_Washington_College_reporter52 Willow oak Quercus phellos Leaves Unfolding (None) 39.216927000000000 -76.068821000000000 59614
Mon Oct 26 00:00:00 GMT 2015 robinv1_Washington_College_reporter52 Willow oak Quercus phellos Leaves Changing Color (Middle) 39.216927000000000 -76.068821000000000 59615
Mon Oct 26 00:00:00 GMT 2015 robinv1_Washington_College_reporter52 Willow oak Quercus phellos Leaves Dropping (Early) 39.216927000000000 -76.068821000000000 59616
Mon Oct 26 00:00:00 GMT 2015 robinv1_Washington_College_reporter52 Willow oak Quercus phellos Flowers (Middle) 39.216927000000000 -76.068821000000000 59617
Mon Oct 26 00:00:00 GMT 2015 robinv1_Washington_College_reporter52 Willow oak Quercus phellos Fruit (Middle) 39.216927000000000 -76.068821000000000 59618
Mon Oct 26 00:00:00 GMT 2015 robinv1_Washington_College_reporter52 Willow oak Quercus phellos Leaves Unfolding (None) 39.216927000000000 -76.068821000000000 59619
Mon Oct 26 00:00:00 GMT 2015 robinv1_Washington_College_reporter52 Willow oak Quercus phellos Leaves Changing Color (Middle) 39.216927000000000 -76.068821000000000 59620
Mon Oct 26 00:00:00 GMT 2015 robinv1_Washington_College_reporter52 Willow oak Quercus phellos Leaves Dropping (Early) 39.216927000000000 -76.068821000000000 59621
Mon Oct 26 00:00:00 GMT 2015 robinv1_Washington_College_reporter52 Willow oak Quercus phellos Flowers (Middle) 39.216927000000000 -76.068821000000000 59622
Mon Oct 26 00:00:00 GMT 2015 robinv1_Washington_College_reporter52 Willow oak Quercus phellos Fruit (Middle) 39.216927000000000 -76.068821000000000 59623
Mon Nov 02 00:00:00 GMT 2015 robinv1_Washington_College_reporter52 Willow oak Quercus phellos Leaves Unfolding (None) 39.216927000000000 -76.068821000000000 59624
Mon Nov 02 00:00:00 GMT 2015 robinv1_Washington_College_reporter52 Willow oak Quercus phellos Leaves Changing Color (Middle) 39.216927000000000 -76.068821000000000 59625
Mon Nov 02 00:00:00 GMT 2015 robinv1_Washington_College_reporter52 Willow oak Quercus phellos Leaves Dropping (Middle) 39.216927000000000 -76.068821000000000 59626
Mon Nov 02 00:00:00 GMT 2015 robinv1_Washington_College_reporter52 Willow oak Quercus phellos Flowers (Middle) 39.216927000000000 -76.068821000000000 59627
Mon Nov 02 00:00:00 GMT 2015 robinv1_Washington_College_reporter52 Willow oak Quercus phellos Fruit (Middle) 39.216927000000000 -76.068821000000000 59628
Mon Nov 09 00:00:00 GMT 2015 robinv1_Washington_College_reporter52 Willow oak Quercus phellos Leaves Unfolding (None) 39.216927000000000 -76.068821000000000 59634
Mon Nov 09 00:00:00 GMT 2015 robinv1_Washington_College_reporter52 Willow oak Quercus phellos Leaves Changing Color (Late) 39.216927000000000 -76.068821000000000 59635
Mon Nov 09 00:00:00 GMT 2015 robinv1_Washington_College_reporter52 Willow oak Quercus phellos Leaves Dropping (Middle) 39.216927000000000 -76.068821000000000 59636
Mon Nov 09 00:00:00 GMT 2015 robinv1_Washington_College_reporter52 Willow oak Quercus phellos Flowers (Late) 39.216927000000000 -76.068821000000000 59637
Mon Nov 09 00:00:00 GMT 2015 robinv1_Washington_College_reporter52 Willow oak Quercus phellos Fruit (Late) 39.216927000000000 -76.068821000000000 59638
Mon Nov 23 00:00:00 GMT 2015 robinv1_Washington_College_reporter52 Willow oak Quercus phellos Leaves Unfolding (None) 39.216927000000000 -76.068821000000000 59639
Mon Nov 23 00:00:00 GMT 2015 robinv1_Washington_College_reporter52 Willow oak Quercus phellos Leaves Changing Color (Late) 39.216927000000000 -76.068821000000000 59640
Mon Nov 23 00:00:00 GMT 2015 robinv1_Washington_College_reporter52 Willow oak Quercus phellos Leaves Dropping (Late) 39.216927000000000 -76.068821000000000 59641
Mon Nov 23 00:00:00 GMT 2015 robinv1_Washington_College_reporter52 Willow oak Quercus phellos Flowers (Late) 39.216927000000000 -76.068821000000000 59642
Mon Nov 23 00:00:00 GMT 2015 robinv1_Washington_College_reporter52 Willow oak Quercus phellos Fruit (Late) 39.216927000000000 -76.068821000000000 59643
Mon Nov 30 00:00:00 GMT 2015 robinv1_Washington_College_reporter52 Willow oak Quercus phellos Leaves Unfolding (None) 39.216927000000000 -76.068821000000000 59649
Mon Nov 30 00:00:00 GMT 2015 robinv1_Washington_College_reporter52 Willow oak Quercus phellos Leaves Changing Color (Late) 39.216927000000000 -76.068821000000000 59650
Mon Nov 30 00:00:00 GMT 2015 robinv1_Washington_College_reporter52 Willow oak Quercus phellos Leaves Dropping (Late) 39.216927000000000 -76.068821000000000 59651
Mon Nov 30 00:00:00 GMT 2015 robinv1_Washington_College_reporter52 Willow oak Quercus phellos Flowers (Late) 39.216927000000000 -76.068821000000000 59652
Mon Nov 30 00:00:00 GMT 2015 robinv1_Washington_College_reporter52 Willow oak Quercus phellos Fruit (Late) 39.216927000000000 -76.068821000000000 59653
Tue Oct 06 00:00:00 GMT 2015 robinv1_Washington_College_reporter60 Willow oak Quercus phellos Leaves Unfolding (Late) 40.000000000000000 -100.000000000000000 59853
Tue Oct 06 00:00:00 GMT 2015 robinv1_Washington_College_reporter60 Willow oak Quercus phellos Leaves Changing Color (Early) 40.000000000000000 -100.000000000000000 59854
Tue Oct 06 00:00:00 GMT 2015 robinv1_Washington_College_reporter60 Willow oak Quercus phellos Leaves Dropping (Early) 40.000000000000000 -100.000000000000000 59855
Tue Oct 06 00:00:00 GMT 2015 robinv1_Washington_College_reporter60 Willow oak Quercus phellos Flowers (None) 40.000000000000000 -100.000000000000000 59856
Tue Oct 06 00:00:00 GMT 2015 robinv1_Washington_College_reporter60 Willow oak Quercus phellos Fruit (None) 40.000000000000000 -100.000000000000000 59857
Mon Oct 12 00:00:00 GMT 2015 robinv1_Washington_College_reporter60 Willow oak Quercus phellos Leaves Unfolding (Late) 40.000000000000000 -100.000000000000000 59873
Mon Oct 12 00:00:00 GMT 2015 robinv1_Washington_College_reporter60 Willow oak Quercus phellos Leaves Changing Color (Early) 40.000000000000000 -100.000000000000000 59874
Mon Oct 12 00:00:00 GMT 2015 robinv1_Washington_College_reporter60 Willow oak Quercus phellos Leaves Dropping (Middle) 40.000000000000000 -100.000000000000000 59875
Mon Oct 12 00:00:00 GMT 2015 robinv1_Washington_College_reporter60 Willow oak Quercus phellos Flowers (None) 40.000000000000000 -100.000000000000000 59876
Mon Oct 12 00:00:00 GMT 2015 robinv1_Washington_College_reporter60 Willow oak Quercus phellos Fruit (None) 40.000000000000000 -100.000000000000000 59877
Tue Oct 20 00:00:00 GMT 2015 robinv1_Washington_College_reporter60 Willow oak Quercus phellos Leaves Unfolding (Late) 40.000000000000000 -100.000000000000000 59888
Tue Oct 20 00:00:00 GMT 2015 robinv1_Washington_College_reporter60 Willow oak Quercus phellos Leaves Changing Color (Middle) 40.000000000000000 -100.000000000000000 59889
Tue Oct 20 00:00:00 GMT 2015 robinv1_Washington_College_reporter60 Willow oak Quercus phellos Leaves Dropping (Middle) 40.000000000000000 -100.000000000000000 59890
Tue Oct 20 00:00:00 GMT 2015 robinv1_Washington_College_reporter60 Willow oak Quercus phellos Flowers (None) 40.000000000000000 -100.000000000000000 59891
Tue Oct 20 00:00:00 GMT 2015 robinv1_Washington_College_reporter60 Willow oak Quercus phellos Fruit (None) 40.000000000000000 -100.000000000000000 59892
Tue Dec 08 00:00:00 GMT 2015 robinv1_Washington_College_reporter60 Willow oak Quercus phellos Leaves Unfolding (Late) 40.000000000000000 -100.000000000000000 59893
Tue Dec 08 00:00:00 GMT 2015 robinv1_Washington_College_reporter60 Willow oak Quercus phellos Leaves Changing Color (Middle) 40.000000000000000 -100.000000000000000 59894
Tue Dec 08 00:00:00 GMT 2015 robinv1_Washington_College_reporter60 Willow oak Quercus phellos Leaves Dropping (Middle) 40.000000000000000 -100.000000000000000 59895
Tue Dec 08 00:00:00 GMT 2015 robinv1_Washington_College_reporter60 Willow oak Quercus phellos Flowers (None) 40.000000000000000 -100.000000000000000 59896
Tue Dec 08 00:00:00 GMT 2015 robinv1_Washington_College_reporter60 Willow oak Quercus phellos Fruit (None) 40.000000000000000 -100.000000000000000 59897
Tue Oct 27 00:00:00 GMT 2015 robinv1_Washington_College_reporter60 Willow oak Quercus phellos Leaves Unfolding (Late) 40.000000000000000 -100.000000000000000 59903
Tue Oct 27 00:00:00 GMT 2015 robinv1_Washington_College_reporter60 Willow oak Quercus phellos Leaves Changing Color (Middle) 40.000000000000000 -100.000000000000000 59904
Tue Oct 27 00:00:00 GMT 2015 robinv1_Washington_College_reporter60 Willow oak Quercus phellos Leaves Dropping (Middle) 40.000000000000000 -100.000000000000000 59905
Tue Oct 27 00:00:00 GMT 2015 robinv1_Washington_College_reporter60 Willow oak Quercus phellos Flowers (None) 40.000000000000000 -100.000000000000000 59906
Tue Oct 27 00:00:00 GMT 2015 robinv1_Washington_College_reporter60 Willow oak Quercus phellos Fruit (None) 40.000000000000000 -100.000000000000000 59907
Thu Nov 05 00:00:00 GMT 2015 robinv1_Washington_College_reporter60 Willow oak Quercus phellos Leaves Unfolding (Late) 40.000000000000000 -100.000000000000000 59913
Thu Nov 05 00:00:00 GMT 2015 robinv1_Washington_College_reporter60 Willow oak Quercus phellos Leaves Changing Color (Middle) 40.000000000000000 -100.000000000000000 59914
Thu Nov 05 00:00:00 GMT 2015 robinv1_Washington_College_reporter60 Willow oak Quercus phellos Leaves Dropping (Middle) 40.000000000000000 -100.000000000000000 59915
Thu Nov 05 00:00:00 GMT 2015 robinv1_Washington_College_reporter60 Willow oak Quercus phellos Flowers (None) 40.000000000000000 -100.000000000000000 59916
Thu Nov 05 00:00:00 GMT 2015 robinv1_Washington_College_reporter60 Willow oak Quercus phellos Fruit (None) 40.000000000000000 -100.000000000000000 59917
Fri Nov 13 00:00:00 GMT 2015 robinv1_Washington_College_reporter60 Willow oak Quercus phellos Leaves Unfolding (Late) 40.000000000000000 -100.000000000000000 59923
Fri Nov 13 00:00:00 GMT 2015 robinv1_Washington_College_reporter60 Willow oak Quercus phellos Leaves Changing Color (Middle) 40.000000000000000 -100.000000000000000 59924
Fri Nov 13 00:00:00 GMT 2015 robinv1_Washington_College_reporter60 Willow oak Quercus phellos Leaves Dropping (Middle) 40.000000000000000 -100.000000000000000 59925
Fri Nov 13 00:00:00 GMT 2015 robinv1_Washington_College_reporter60 Willow oak Quercus phellos Flowers (None) 40.000000000000000 -100.000000000000000 59926
Fri Nov 13 00:00:00 GMT 2015 robinv1_Washington_College_reporter60 Willow oak Quercus phellos Fruit (None) 40.000000000000000 -100.000000000000000 59927
Mon Nov 16 00:00:00 GMT 2015 robinv1_Washington_College_reporter60 Willow oak Quercus phellos Leaves Unfolding (Late) 40.000000000000000 -100.000000000000000 59938
Mon Nov 16 00:00:00 GMT 2015 robinv1_Washington_College_reporter60 Willow oak Quercus phellos Leaves Changing Color (Late) 40.000000000000000 -100.000000000000000 59939
Mon Nov 16 00:00:00 GMT 2015 robinv1_Washington_College_reporter60 Willow oak Quercus phellos Leaves Dropping (Middle) 40.000000000000000 -100.000000000000000 59940
Mon Nov 16 00:00:00 GMT 2015 robinv1_Washington_College_reporter60 Willow oak Quercus phellos Flowers (None) 40.000000000000000 -100.000000000000000 59941
Mon Nov 16 00:00:00 GMT 2015 robinv1_Washington_College_reporter60 Willow oak Quercus phellos Fruit (None) 40.000000000000000 -100.000000000000000 59942
Sun Nov 29 00:00:00 GMT 2015 robinv1_Washington_College_reporter60 Willow oak Quercus phellos Leaves Unfolding (Late) 40.000000000000000 -100.000000000000000 59943
Sun Nov 29 00:00:00 GMT 2015 robinv1_Washington_College_reporter60 Willow oak Quercus phellos Leaves Changing Color (Late) 40.000000000000000 -100.000000000000000 59944
Sun Nov 29 00:00:00 GMT 2015 robinv1_Washington_College_reporter60 Willow oak Quercus phellos Leaves Dropping (Middle) 40.000000000000000 -100.000000000000000 59945
Sun Nov 29 00:00:00 GMT 2015 robinv1_Washington_College_reporter60 Willow oak Quercus phellos Flowers (None) 40.000000000000000 -100.000000000000000 59946
Sun Nov 29 00:00:00 GMT 2015 robinv1_Washington_College_reporter60 Willow oak Quercus phellos Fruit (None) 40.000000000000000 -100.000000000000000 59947
Sun Dec 06 00:00:00 GMT 2015 robinv1_Washington_College_reporter60 Willow oak Quercus phellos Leaves Unfolding (Late) 40.000000000000000 -100.000000000000000 59953
Sun Dec 06 00:00:00 GMT 2015 robinv1_Washington_College_reporter60 Willow oak Quercus phellos Leaves Changing Color (Late) 40.000000000000000 -100.000000000000000 59954
Sun Dec 06 00:00:00 GMT 2015 robinv1_Washington_College_reporter60 Willow oak Quercus phellos Leaves Dropping (Late) 40.000000000000000 -100.000000000000000 59955
Sun Dec 06 00:00:00 GMT 2015 robinv1_Washington_College_reporter60 Willow oak Quercus phellos Flowers (None) 40.000000000000000 -100.000000000000000 59956
Sun Dec 06 00:00:00 GMT 2015 robinv1_Washington_College_reporter60 Willow oak Quercus phellos Fruit (None) 40.000000000000000 -100.000000000000000 59957
Sun Dec 06 00:00:00 GMT 2015 robinv1_Washington_College_reporter50 Willow oak Quercus phellos Bud Burst 39.219200000000000 -76.069600000000000 60441
Sun Dec 06 00:00:00 GMT 2015 robinv1_Washington_College_reporter50 Willow oak Quercus phellos 50% Color 39.219200000000000 -76.069600000000000 60442
Sun Dec 06 00:00:00 GMT 2015 robinv1_Washington_College_reporter50 Willow oak Quercus phellos 50% Leaf Fall 39.219200000000000 -76.069600000000000 60443
Sun Dec 06 00:00:00 GMT 2015 robinv1_Washington_College_reporter50 Willow oak Quercus phellos Leaves Unfolding (Middle) 39.218870000000000 -76.069000000000000 60444
Sun Dec 06 00:00:00 GMT 2015 robinv1_Washington_College_reporter50 Willow oak Quercus phellos Leaves Changing Color (Late) 39.218870000000000 -76.069000000000000 60445
Sun Dec 06 00:00:00 GMT 2015 robinv1_Washington_College_reporter50 Willow oak Quercus phellos Leaves Dropping (Late) 39.218870000000000 -76.069000000000000 60446
Sun Dec 06 00:00:00 GMT 2015 robinv1_Washington_College_reporter50 Willow oak Quercus phellos Flowers (None) 39.218870000000000 -76.069000000000000 60447
Sun Dec 06 00:00:00 GMT 2015 robinv1_Washington_College_reporter50 Willow oak Quercus phellos Fruit (None) 39.218870000000000 -76.069000000000000 60448
Tue Dec 08 00:00:00 GMT 2015 robinv1_Washington_College_reporter50 Willow oak Quercus phellos Leaves Unfolding (Late) 39.218870000000000 -76.069000000000000 60449
Tue Dec 08 00:00:00 GMT 2015 robinv1_Washington_College_reporter50 Willow oak Quercus phellos Leaves Changing Color (Late) 39.218870000000000 -76.069000000000000 60450
Tue Dec 08 00:00:00 GMT 2015 robinv1_Washington_College_reporter50 Willow oak Quercus phellos Leaves Dropping (Late) 39.218870000000000 -76.069000000000000 60451
Tue Dec 08 00:00:00 GMT 2015 robinv1_Washington_College_reporter50 Willow oak Quercus phellos Flowers (None) 39.218870000000000 -76.069000000000000 60452
Tue Dec 08 00:00:00 GMT 2015 robinv1_Washington_College_reporter50 Willow oak Quercus phellos Fruit (None) 39.218870000000000 -76.069000000000000 60453
Thu Oct 22 00:00:00 GMT 2015 robinv1_Washington_College_reporter50 Willow oak Quercus phellos Leaves Unfolding (Late) 39.218870000000000 -76.069000000000000 60454
Thu Oct 22 00:00:00 GMT 2015 robinv1_Washington_College_reporter50 Willow oak Quercus phellos Leaves Changing Color (Middle) 39.218870000000000 -76.069000000000000 60455
Thu Oct 22 00:00:00 GMT 2015 robinv1_Washington_College_reporter50 Willow oak Quercus phellos Leaves Dropping (Middle) 39.218870000000000 -76.069000000000000 60456
Thu Oct 22 00:00:00 GMT 2015 robinv1_Washington_College_reporter50 Willow oak Quercus phellos Flowers (None) 39.218870000000000 -76.069000000000000 60457
Thu Oct 22 00:00:00 GMT 2015 robinv1_Washington_College_reporter50 Willow oak Quercus phellos Fruit (None) 39.218870000000000 -76.069000000000000 60458
Sat Nov 14 00:00:00 GMT 2015 robinv1_Washington_College_reporter50 Willow oak Quercus phellos Leaves Unfolding (Late) 39.218870000000000 -76.069000000000000 60459
Sat Nov 14 00:00:00 GMT 2015 robinv1_Washington_College_reporter50 Willow oak Quercus phellos Leaves Changing Color (Middle) 39.218870000000000 -76.069000000000000 60460
Sat Nov 14 00:00:00 GMT 2015 robinv1_Washington_College_reporter50 Willow oak Quercus phellos Leaves Dropping (Middle) 39.218870000000000 -76.069000000000000 60461
Sat Nov 14 00:00:00 GMT 2015 robinv1_Washington_College_reporter50 Willow oak Quercus phellos Flowers (None) 39.218870000000000 -76.069000000000000 60462
Sat Nov 14 00:00:00 GMT 2015 robinv1_Washington_College_reporter50 Willow oak Quercus phellos Fruit (None) 39.218870000000000 -76.069000000000000 60463
Mon Nov 02 00:00:00 GMT 2015 robinv1_Washington_College_reporter50 Willow oak Quercus phellos Leaves Unfolding (Middle) 39.218870000000000 -76.069000000000000 60464
Mon Nov 02 00:00:00 GMT 2015 robinv1_Washington_College_reporter50 Willow oak Quercus phellos Leaves Changing Color (Middle) 39.218870000000000 -76.069000000000000 60465
Mon Nov 02 00:00:00 GMT 2015 robinv1_Washington_College_reporter50 Willow oak Quercus phellos Leaves Dropping (Middle) 39.218870000000000 -76.069000000000000 60466
Mon Nov 02 00:00:00 GMT 2015 robinv1_Washington_College_reporter50 Willow oak Quercus phellos Flowers (None) 39.218870000000000 -76.069000000000000 60467
Mon Nov 02 00:00:00 GMT 2015 robinv1_Washington_College_reporter50 Willow oak Quercus phellos Fruit (None) 39.218870000000000 -76.069000000000000 60468
Mon Oct 26 00:00:00 GMT 2015 robinv1_Washington_College_reporter50 Willow oak Quercus phellos Leaves Unfolding (Middle) 39.218870000000000 -76.069000000000000 60469
Mon Oct 26 00:00:00 GMT 2015 robinv1_Washington_College_reporter50 Willow oak Quercus phellos Leaves Changing Color (Early) 39.218870000000000 -76.069000000000000 60470
Mon Oct 26 00:00:00 GMT 2015 robinv1_Washington_College_reporter50 Willow oak Quercus phellos Leaves Dropping (Early) 39.218870000000000 -76.069000000000000 60471
Mon Oct 26 00:00:00 GMT 2015 robinv1_Washington_College_reporter50 Willow oak Quercus phellos Flowers (None) 39.218870000000000 -76.069000000000000 60472
Mon Oct 26 00:00:00 GMT 2015 robinv1_Washington_College_reporter50 Willow oak Quercus phellos Fruit (None) 39.218870000000000 -76.069000000000000 60473
Tue Oct 20 00:00:00 GMT 2015 robinv1_Washington_College_reporter50 Willow oak Quercus phellos Leaves Unfolding (Early) 39.218870000000000 -76.069000000000000 60474
Tue Oct 20 00:00:00 GMT 2015 robinv1_Washington_College_reporter50 Willow oak Quercus phellos Leaves Changing Color (Early) 39.218870000000000 -76.069000000000000 60475
Tue Oct 20 00:00:00 GMT 2015 robinv1_Washington_College_reporter50 Willow oak Quercus phellos Leaves Dropping (Early) 39.218870000000000 -76.069000000000000 60476
Tue Oct 20 00:00:00 GMT 2015 robinv1_Washington_College_reporter50 Willow oak Quercus phellos Flowers (None) 39.218870000000000 -76.069000000000000 60477
Tue Oct 20 00:00:00 GMT 2015 robinv1_Washington_College_reporter50 Willow oak Quercus phellos Fruit (None) 39.218870000000000 -76.069000000000000 60478
Tue Oct 06 00:00:00 GMT 2015 robinv1_Washington_College_reporter50 Willow oak Quercus phellos Leaves Unfolding (None) 39.218870000000000 -76.069000000000000 60479
Tue Oct 06 00:00:00 GMT 2015 robinv1_Washington_College_reporter50 Willow oak Quercus phellos Leaves Changing Color (Early) 39.218870000000000 -76.069000000000000 60480
Tue Oct 06 00:00:00 GMT 2015 robinv1_Washington_College_reporter50 Willow oak Quercus phellos Leaves Dropping (Early) 39.218870000000000 -76.069000000000000 60481
Tue Oct 06 00:00:00 GMT 2015 robinv1_Washington_College_reporter50 Willow oak Quercus phellos Flowers (None) 39.218870000000000 -76.069000000000000 60482
Tue Oct 06 00:00:00 GMT 2015 robinv1_Washington_College_reporter50 Willow oak Quercus phellos Fruit (None) 39.218870000000000 -76.069000000000000 60483
Mon Nov 02 00:00:00 GMT 2015 robinv1_Washington_College_reporter48 Willow oak Quercus phellos 50% Color 39.219200000000000 -76.069600000000000 60708
Mon Nov 09 00:00:00 GMT 2015 robinv1_Washington_College_reporter48 Willow oak Quercus phellos 50% Leaf Fall 39.219200000000000 -76.069600000000000 60709
Sat Feb 11 00:00:00 GMT 2017 IshRaq15 Willow oak Quercus phellos Leaves Unfolding (None) 39.782810000000000 -75.500570000000000 74854
Sat Feb 11 00:00:00 GMT 2017 IshRaq15 Willow oak Quercus phellos Leaves Changing Color (None) 39.782810000000000 -75.500570000000000 74855
Sat Feb 11 00:00:00 GMT 2017 IshRaq15 Willow oak Quercus phellos Leaves Dropping (None) 39.782810000000000 -75.500570000000000 74856
Sat Feb 11 00:00:00 GMT 2017 IshRaq15 Willow oak Quercus phellos Flowers (None) 39.782810000000000 -75.500570000000000 74857
Sat Feb 11 00:00:00 GMT 2017 IshRaq15 Willow oak Quercus phellos Fruit (None) 39.782810000000000 -75.500570000000000 74858
Tue Feb 28 00:00:00 GMT 2017 jeanmells Willow oak Quercus phellos Bud Burst 35.797400000000000 -78.634050000000000 75400
Mon Mar 20 00:00:00 GMT 2017 ojohnstone Willow oak Quercus phellos Leaves Unfolding (None) 37.292310000000000 -85.950890000000000 75814
Mon Mar 20 00:00:00 GMT 2017 ojohnstone Willow oak Quercus phellos Leaves Changing Color (None) 37.292310000000000 -85.950890000000000 75815
Mon Mar 20 00:00:00 GMT 2017 ojohnstone Willow oak Quercus phellos Leaves Dropping (None) 37.292310000000000 -85.950890000000000 75816
Mon Mar 20 00:00:00 GMT 2017 ojohnstone Willow oak Quercus phellos Flowers (None) 37.292310000000000 -85.950890000000000 75817
Mon Mar 20 00:00:00 GMT 2017 ojohnstone Willow oak Quercus phellos Fruit (None) 37.292310000000000 -85.950890000000000 75818
Mon Mar 20 00:00:00 GMT 2017 jacoblobb Willow oak Quercus phellos Leaves Unfolding (None) 37.263158000000000 -85.879526000000000 75824
Mon Mar 20 00:00:00 GMT 2017 jacoblobb Willow oak Quercus phellos Leaves Changing Color (None) 37.263158000000000 -85.879526000000000 75825
Mon Mar 20 00:00:00 GMT 2017 jacoblobb Willow oak Quercus phellos Leaves Dropping (None) 37.263158000000000 -85.879526000000000 75826
Mon Mar 20 00:00:00 GMT 2017 jacoblobb Willow oak Quercus phellos Flowers (None) 37.263158000000000 -85.879526000000000 75827
Mon Mar 20 00:00:00 GMT 2017 jacoblobb Willow oak Quercus phellos Fruit (None) 37.263158000000000 -85.879526000000000 75828
Mon Mar 20 00:00:00 GMT 2017 aaedwards Willow oak Quercus phellos Leaves Unfolding (None) 37.259620000000000 -85.881670000000000 75839
Mon Mar 20 00:00:00 GMT 2017 aaedwards Willow oak Quercus phellos Leaves Changing Color (None) 37.259620000000000 -85.881670000000000 75840
Mon Mar 20 00:00:00 GMT 2017 aaedwards Willow oak Quercus phellos Leaves Dropping (None) 37.259620000000000 -85.881670000000000 75841
Mon Mar 20 00:00:00 GMT 2017 aaedwards Willow oak Quercus phellos Flowers (None) 37.259620000000000 -85.881670000000000 75842
Mon Mar 20 00:00:00 GMT 2017 aaedwards Willow oak Quercus phellos Fruit (None) 37.259620000000000 -85.881670000000000 75843
Mon Mar 20 00:00:00 GMT 2017 lilyjean73 Willow oak Quercus phellos Leaves Unfolding (None) 37.292310000000000 -85.950890000000000 75844
Mon Mar 20 00:00:00 GMT 2017 lilyjean73 Willow oak Quercus phellos Leaves Changing Color (None) 37.292310000000000 -85.950890000000000 75845
Mon Mar 20 00:00:00 GMT 2017 lilyjean73 Willow oak Quercus phellos Leaves Dropping (None) 37.292310000000000 -85.950890000000000 75846
Mon Mar 20 00:00:00 GMT 2017 lilyjean73 Willow oak Quercus phellos Flowers (None) 37.292310000000000 -85.950890000000000 75847
Mon Mar 20 00:00:00 GMT 2017 lilyjean73 Willow oak Quercus phellos Fruit (None) 37.292310000000000 -85.950890000000000 75848
Mon Mar 20 00:00:00 GMT 2017 jinseystinson Willow oak Quercus phellos Leaves Unfolding (Early) 37.272280000000000 -85.891080000000000 75849
Mon Mar 20 00:00:00 GMT 2017 jinseystinson Willow oak Quercus phellos Leaves Changing Color (None) 37.272280000000000 -85.891080000000000 75850
Mon Mar 20 00:00:00 GMT 2017 jinseystinson Willow oak Quercus phellos Leaves Dropping (None) 37.272280000000000 -85.891080000000000 75851
Mon Mar 20 00:00:00 GMT 2017 jinseystinson Willow oak Quercus phellos Flowers (None) 37.272280000000000 -85.891080000000000 75852
Mon Mar 20 00:00:00 GMT 2017 jinseystinson Willow oak Quercus phellos Fruit (None) 37.272280000000000 -85.891080000000000 75853
Mon Mar 20 00:00:00 GMT 2017 kayliebutler Willow oak Quercus phellos Leaves Unfolding (Early) 37.292310000000000 -85.950890000000000 75929
Mon Mar 20 00:00:00 GMT 2017 kayliebutler Willow oak Quercus phellos Leaves Changing Color (None) 37.292310000000000 -85.950890000000000 75930
Mon Mar 20 00:00:00 GMT 2017 kayliebutler Willow oak Quercus phellos Leaves Dropping (None) 37.292310000000000 -85.950890000000000 75931
Mon Mar 20 00:00:00 GMT 2017 kayliebutler Willow oak Quercus phellos Flowers (None) 37.292310000000000 -85.950890000000000 75932
Mon Mar 20 00:00:00 GMT 2017 kayliebutler Willow oak Quercus phellos Fruit (None) 37.292310000000000 -85.950890000000000 75933
Mon Mar 20 00:00:00 GMT 2017 Mshrader Willow oak Quercus phellos Leaves Unfolding (None) 37.258923000000000 -85.882144000000000 75939
Mon Mar 20 00:00:00 GMT 2017 Mshrader Willow oak Quercus phellos Leaves Changing Color (None) 37.258923000000000 -85.882144000000000 75940
Mon Mar 20 00:00:00 GMT 2017 Mshrader Willow oak Quercus phellos Leaves Dropping (None) 37.258923000000000 -85.882144000000000 75941
Mon Mar 20 00:00:00 GMT 2017 Mshrader Willow oak Quercus phellos Flowers (None) 37.258923000000000 -85.882144000000000 75942
Mon Mar 20 00:00:00 GMT 2017 Mshrader Willow oak Quercus phellos Fruit (None) 37.258923000000000 -85.882144000000000 75943
Fri Mar 24 00:00:00 GMT 2017 kayliebutler Willow oak Quercus phellos Leaves Unfolding (None) 37.292310000000000 -85.950890000000000 76271
Fri Mar 24 00:00:00 GMT 2017 kayliebutler Willow oak Quercus phellos Leaves Changing Color (None) 37.292310000000000 -85.950890000000000 76272
Fri Mar 24 00:00:00 GMT 2017 kayliebutler Willow oak Quercus phellos Leaves Dropping (None) 37.292310000000000 -85.950890000000000 76273
Fri Mar 24 00:00:00 GMT 2017 kayliebutler Willow oak Quercus phellos Flowers (None) 37.292310000000000 -85.950890000000000 76274
Fri Mar 24 00:00:00 GMT 2017 kayliebutler Willow oak Quercus phellos Fruit (None) 37.292310000000000 -85.950890000000000 76275
Fri Mar 24 00:00:00 GMT 2017 lilyjean73 Willow oak Quercus phellos Leaves Unfolding (None) 40.000000000000000 -100.000000000000000 76276
Fri Mar 24 00:00:00 GMT 2017 lilyjean73 Willow oak Quercus phellos Leaves Changing Color (None) 40.000000000000000 -100.000000000000000 76277
Fri Mar 24 00:00:00 GMT 2017 lilyjean73 Willow oak Quercus phellos Leaves Dropping (None) 40.000000000000000 -100.000000000000000 76278
Fri Mar 24 00:00:00 GMT 2017 lilyjean73 Willow oak Quercus phellos Flowers (None) 40.000000000000000 -100.000000000000000 76279
Fri Mar 24 00:00:00 GMT 2017 lilyjean73 Willow oak Quercus phellos Fruit (None) 40.000000000000000 -100.000000000000000 76280
Fri Mar 24 00:00:00 GMT 2017 mollyjean083 Willow oak Quercus phellos Leaves Unfolding (None) 37.259680000000000 -85.881480000000000 76296
Fri Mar 24 00:00:00 GMT 2017 mollyjean083 Willow oak Quercus phellos Leaves Changing Color (None) 37.259680000000000 -85.881480000000000 76297
Fri Mar 24 00:00:00 GMT 2017 mollyjean083 Willow oak Quercus phellos Leaves Dropping (None) 37.259680000000000 -85.881480000000000 76298
Fri Mar 24 00:00:00 GMT 2017 mollyjean083 Willow oak Quercus phellos Flowers (None) 37.259680000000000 -85.881480000000000 76299
Fri Mar 24 00:00:00 GMT 2017 mollyjean083 Willow oak Quercus phellos Fruit (None) 37.259680000000000 -85.881480000000000 76300
Fri Mar 24 00:00:00 GMT 2017 jinseystinson Willow oak Quercus phellos Leaves Unfolding (Early) 37.292310000000000 -85.950890000000000 76311
Fri Mar 24 00:00:00 GMT 2017 jinseystinson Willow oak Quercus phellos Leaves Changing Color (None) 37.292310000000000 -85.950890000000000 76312
Fri Mar 24 00:00:00 GMT 2017 jinseystinson Willow oak Quercus phellos Leaves Dropping (None) 37.292310000000000 -85.950890000000000 76313
Fri Mar 24 00:00:00 GMT 2017 jinseystinson Willow oak Quercus phellos Flowers (None) 37.292310000000000 -85.950890000000000 76314
Fri Mar 24 00:00:00 GMT 2017 jinseystinson Willow oak Quercus phellos Fruit (None) 37.292310000000000 -85.950890000000000 76315
Fri Mar 24 00:00:00 GMT 2017 TheMcButter Willow oak Quercus phellos Leaves Unfolding (Early) 37.259709000000000 -85.881500000000000 76328
Fri Mar 24 00:00:00 GMT 2017 TheMcButter Willow oak Quercus phellos Leaves Changing Color (None) 37.259709000000000 -85.881500000000000 76329
Fri Mar 24 00:00:00 GMT 2017 TheMcButter Willow oak Quercus phellos Leaves Dropping (None) 37.259709000000000 -85.881500000000000 76330
Fri Mar 24 00:00:00 GMT 2017 TheMcButter Willow oak Quercus phellos Flowers (None) 37.259709000000000 -85.881500000000000 76331
Fri Mar 24 00:00:00 GMT 2017 TheMcButter Willow oak Quercus phellos Fruit (None) 37.259709000000000 -85.881500000000000 76332
Fri Mar 24 00:00:00 GMT 2017 aaedwards Willow oak Quercus phellos Leaves Unfolding (None) 37.260323000000000 -85.862789000000000 76340
Fri Mar 24 00:00:00 GMT 2017 aaedwards Willow oak Quercus phellos Leaves Changing Color (None) 37.260323000000000 -85.862789000000000 76341
Fri Mar 24 00:00:00 GMT 2017 aaedwards Willow oak Quercus phellos Leaves Dropping (None) 37.260323000000000 -85.862789000000000 76342
Fri Mar 24 00:00:00 GMT 2017 aaedwards Willow oak Quercus phellos Flowers (None) 37.260323000000000 -85.862789000000000 76343
Fri Mar 24 00:00:00 GMT 2017 aaedwards Willow oak Quercus phellos Fruit (None) 37.260323000000000 -85.862789000000000 76344
Fri Mar 24 00:00:00 GMT 2017 Mshrader Willow oak Quercus phellos Leaves Unfolding (None) 37.259282000000000 -85.882359000000000 76356
Fri Mar 24 00:00:00 GMT 2017 Mshrader Willow oak Quercus phellos Leaves Changing Color (None) 37.259282000000000 -85.882359000000000 76357
Fri Mar 24 00:00:00 GMT 2017 Mshrader Willow oak Quercus phellos Leaves Dropping (None) 37.259282000000000 -85.882359000000000 76358
Fri Mar 24 00:00:00 GMT 2017 Mshrader Willow oak Quercus phellos Flowers (None) 37.259282000000000 -85.882359000000000 76359
Fri Mar 24 00:00:00 GMT 2017 Mshrader Willow oak Quercus phellos Fruit (None) 37.259282000000000 -85.882359000000000 76360

*All downloadable materials require the free Adobe Reader.